GFSCGP_con_3kmhel_000.txt.gz
Helicity
4 29 47 16 11 13 16 40 36 23 13 5 3 18 32 7 54 73 83 135 137 102 67 56 162 323 294 227 207 152 148 166 226 199 254 220 244 187 207 163 257 258 195 155
21 56 58 10 19 20 14 13 0 -2 -6 3 60 40 10 118 152 84 81 96 87 86 95 141 168 185 196 160 120 135 102 128 218 185 197 160 172 170 206 210 273 309 181 189
14 84 19 13 19 11 -14 27 -8 13 20 38 10 38 69 158 171 103 64 60 87 98 74 115 129 129 180 166 146 82 87 94 182 220 128 198 236 197 255 288 310 279 162 165
60 67 11 4 30 54 -5 54 -5 13 -4 3 17 18 35 108 179 109 106 115 94 95 93 91 96 91 104 134 174 132 50 93 113 235 263 142 262 305 204 162 173 173 212 139
80 43 29 16 86 5 15 -2 50 55 29 27 48 47 80 91 107 121 143 206 155 127 142 128 116 120 131 126 162 190 143 108 113 144 275 351 279 281 248 226 232 232 255 302
48 49 61 63 11 18 21 9 22 53 73 36 53 84 26 35 97 150 175 216 243 190 189 147 111 125 175 139 162 176 209 184 179 192 195 344 409 326 328 292 363 425 409 411
21 149 117 31 18 24 61 41 24 83 88 82 97 97 131 -34 86 114 289 286 192 167 108 208 194 155 164 185 130 154 246 288 272 251 239 294 402 430 335 305 387 440 545 461
70 90 115 101 61 37 25 46 76 95 110 86 10 48 43 41 114 168 160 135 78 64 109 163 118 92 128 220 202 142 151 161 211 253 300 373 417 497 471 453 495 578 439 354
76 102 98 80 52 40 63 69 107 131 135 170 77 18 -6 49 117 142 65 72 160 124 105 124 90 81 114 163 186 176 204 108 134 170 190 334 424 546 670 735 694 456 336 257
74 30 25 54 27 48 50 68 82 105 139 182 150 80 59 47 108 78 40 101 143 100 99 108 114 183 147 224 169 216 167 204 166 160 267 446 576 682 754 838 655 402 373 383
65 53 27 18 66 92 86 62 96 102 136 198 218 217 153 -33 8 91 75 89 100 82 87 122 140 144 243 212 255 162 158 209 254 269 320 474 517 541 555 499 478 497 416 299
75 42 52 20 11 51 35 23 52 140 189 169 185 275 7 15 64 -75 48 74 71 140 156 214 188 125 170 311 232 76 173 237 340 359 489 495 462 432 410 430 437 396 223 128
66 56 36 63 105 80 87 20 20 60 183 278 271 338 161 89 85 71 61 106 159 187 236 230 210 155 313 222 67 116 159 237 368 519 496 443 347 321 344 374 337 181 131 136
59 46 64 72 61 64 81 34 -13 37 132 145 208 148 120 95 56 80 104 219 227 259 244 137 152 268 228 128 127 127 177 234 412 461 427 365 285 280 279 256 267 154 93 96
70 99 59 45 45 67 57 60 67 93 78 99 101 103 78 63 59 144 242 297 316 264 257 213 215 167 153 146 122 218 166 229 372 402 382 365 410 311 186 286 136 111 121 132
165 213 201 200 70 57 102 86 107 34 102 108 80 104 115 96 127 229 344 289 163 187 134 139 120 103 108 136 159 258 177 260 340 467 477 322 235 240 255 135 113 129 122 148
89 244 279 209 159 169 140 131 57 132 85 118 153 129 90 135 275 272 191 46 212 209 103 113 142 110 88 190 320 275 259 360 401 407 311 240 129 108 158 143 130 128 152 158
81 218 260 231 213 208 104 48 3 90 127 145 127 99 167 210 205 176 87 189 167 122 118 89 112 104 158 235 243 213 199 242 256 249 127 58 119 169 179 146 146 152 168 166
71 239 231 215 184 190 134 14 132 155 221 96 233 288 157 146 149 137 175 115 102 86 106 119 100 205 257 221 216 184 173 164 93 88 182 200 216 174 151 141 158 161 154 131
203 222 218 211 178 158 354 163 0 154 236 257 151 86 154 173 154 187 95 97 110 125 87 124 216 211 179 179 135 110 84 81 139 206 209 208 167 143 136 171 151 135 120 134
205 178 200 208 248 257 175 83 181 227 226 88 84 93 141 148 176 111 58 84 101 101 168 201 222 165 141 142 139 123 99 120 263 211 185 144 125 134 149 140 118 120 125 142
149 189 257 308 320 305 118 181 184 73 88 62 46 85 44 66 117 85 122 140 118 151 226 238 153 140 189 165 170 140 239 227 172 145 133 118 127 139 122 108 110 104 109 121
227 166 237 295 293 201 109 64 99 8 84 80 81 82 113 164 124 118 72 149 160 274 218 153 148 204 160 160 220 194 176 151 132 109 113 126 120 105 106 96 93 95 106 119
248 156 212 163 262 149 115 64 68 118 84 74 116 216 204 114 98 100 156 190 265 246 180 165 204 176 166 171 185 165 137 118 98 101 114 106 96 92 91 89 85 102 102 98
257 222 255 220 202 141 128 122 98 84 100 224 152 177 39 102 122 121 215 245 252 177 169 168 149 143 148 193 168 161 124 101 97 99 96 87 108 96 83 73 92 95 106 71
324 247 244 212 126 129 148 122 91 114 131 162 182 122 115 118 159 211 201 198 166 141 103 105 133 130 158 143 131 112 117 121 106 92 95 93 85 78 77 80 81 92 63 12

GFSCGP_con_3kmhel_006.txt.gz
Helicity
5 -7 1 18 24 18 -37 -25 2 -15 -3 -79 -3 3 42 76 197 159 119 197 226 175 66 85 183 272 291 240 182 153 126 91 134 119 123 135 155 168 186 199 218 215 203 183
26 57 18 5 59 45 41 41 29 23 -13 8 17 11 50 106 124 131 138 137 121 77 76 70 87 97 125 133 116 91 89 68 89 137 142 175 208 200 211 194 221 239 254 263
13 23 7 -3 21 -23 -5 62 33 44 28 47 45 69 49 83 162 133 118 106 113 118 124 105 93 102 122 133 129 95 107 87 95 103 133 172 245 264 262 245 264 283 311 329
23 23 20 38 54 14 9 39 27 52 49 73 89 60 53 54 113 150 144 139 188 179 125 106 80 111 109 100 103 90 126 117 89 131 185 250 287 309 312 330 358 312 337 340
2 37 41 41 11 32 43 34 77 48 85 84 130 69 19 62 110 101 122 196 155 88 101 89 93 129 94 82 96 116 152 134 114 150 194 269 289 351 332 349 345 343 382 420
36 34 43 2 8 35 1 29 31 61 75 81 58 50 83 101 49 163 188 134 81 83 69 90 149 147 206 219 187 177 189 185 164 136 122 251 254 286 327 290 348 421 508 516
59 85 25 14 5 57 49 19 50 90 69 39 32 29 118 -11 80 94 101 54 74 72 73 62 100 216 254 294 283 233 185 128 92 86 150 149 199 207 218 228 297 479 661 719
40 44 46 3 -17 -1 -13 -30 22 43 53 50 36 77 78 30 -55 -72 -2 -14 33 68 9 77 178 270 279 280 281 239 260 167 144 116 161 141 156 167 155 166 253 450 583 686
27 1 5 41 16 48 17 31 43 78 77 106 52 34 -0 85 -5 6 31 -6 87 66 97 123 179 299 334 294 209 134 124 108 149 160 175 195 204 179 198 262 326 470 682 802
4 11 2 5 18 39 43 64 101 72 93 89 99 94 110 39 18 36 27 -60 76 202 274 270 267 275 242 199 114 96 101 122 152 136 173 240 253 282 308 355 421 498 541 521
7 26 -3 30 58 79 66 88 87 70 111 137 160 175 117 51 91 44 -17 147 177 220 221 208 222 206 182 138 109 115 112 97 117 97 143 225 285 327 382 408 377 361 323 272
12 48 29 55 66 56 50 58 36 78 125 140 203 227 92 128 14 8 68 146 164 129 150 191 166 131 89 69 94 93 86 103 121 75 148 235 298 373 418 391 320 302 250 170
34 48 41 61 74 40 28 -13 54 88 144 189 231 242 87 38 75 92 149 150 123 129 120 107 63 74 57 111 96 102 123 122 110 104 162 256 290 310 341 311 245 197 129 86
79 77 90 99 95 102 67 64 96 182 223 222 196 154 77 61 213 250 195 163 175 117 161 113 31 118 84 89 120 125 130 133 107 96 135 241 324 323 317 267 198 162 157 122
97 115 115 150 133 130 124 98 121 148 151 180 145 118 64 213 177 185 154 96 109 55 47 50 -5 115 88 118 118 123 142 140 143 181 234 334 376 384 320 308 341 241 125 80
106 114 163 60 114 144 173 139 138 101 56 110 120 105 160 127 136 155 102 79 69 -3 19 53 98 97 143 117 135 149 163 173 144 229 258 298 353 336 353 247 135 -44 -39 49
116 141 178 162 164 140 58 40 98 111 118 141 153 107 127 101 69 42 -20 68 22 79 139 130 97 122 128 128 147 169 193 143 227 205 155 112 93 44 -65 -70 -66 -7 95 129
132 186 176 163 151 161 118 114 81 91 77 94 148 156 125 41 61 89 -67 35 22 115 184 130 116 125 132 163 184 171 157 221 157 129 73 84 110 125 130 84 108 125 142 139
136 163 147 155 172 176 144 36 136 130 120 182 151 127 66 43 86 92 50 130 115 190 161 106 130 134 153 160 171 221 229 197 283 248 226 217 212 173 118 96 103 108 124 116
187 189 183 209 177 179 193 121 132 123 180 86 114 99 146 149 161 145 127 248 247 104 121 172 135 157 189 231 304 351 309 308 322 239 185 135 105 96 87 93 104 108 110 108
140 131 166 204 225 172 158 101 165 251 145 116 145 183 175 213 212 153 246 191 171 80 149 130 134 152 186 228 278 245 241 247 161 103 111 88 81 93 107 107 102 98 107 114
181 157 190 223 293 208 203 229 172 127 99 72 142 164 195 217 206 194 86 60 115 137 114 97 139 181 200 226 217 173 141 139 116 100 104 92 93 96 108 106 92 108 116 104
248 242 256 334 343 313 206 92 133 112 95 138 168 161 172 136 239 240 160 167 97 76 72 113 143 166 154 133 125 148 163 149 120 97 83 82 93 101 96 100 102 98 84 70
276 277 387 251 290 208 140 110 121 128 145 173 199 141 162 167 187 242 136 87 75 70 128 164 165 148 153 192 218 178 156 121 101 80 76 77 89 94 99 97 100 93 79 78
337 375 362 249 183 176 138 143 156 151 258 272 268 304 277 283 204 89 84 93 78 112 130 142 152 119 146 183 152 143 118 92 84 70 61 71 86 96 95 86 87 90 84 76
402 306 325 288 178 186 178 194 223 260 358 488 300 268 160 28 21 90 111 96 110 103 145 124 140 119 130 147 134 100 84 87 80 63 65 77 82 98 102 83 84 80 79 59

GFSCGP_con_3kmhel_009.txt.gz
Helicity
23 -0 -13 -10 -5 -14 -22 -29 -30 -32 3 -75 -31 2 28 -33 55 50 74 145 145 114 77 53 65 110 192 178 145 84 80 71 139 115 94 83 104 134 179 188 163 175 202 220
33 8 -5 12 4 2 -11 -13 -13 -7 -7 -16 17 25 78 69 45 43 87 131 152 136 102 60 34 37 83 107 84 56 67 90 86 113 104 113 143 120 172 236 247 248 259 254
12 11 31 -8 7 -16 -22 28 -14 18 11 50 6 32 63 63 62 91 66 107 109 86 61 40 24 49 66 81 79 92 102 102 114 130 156 171 206 174 205 215 293 315 363 332
34 36 30 43 6 -7 -14 23 41 5 19 50 48 50 109 56 65 91 114 124 80 68 58 54 41 29 30 30 65 67 92 111 130 160 207 205 221 203 235 253 260 271 329 334
31 48 63 36 -6 4 9 25 23 49 62 65 55 85 87 66 64 92 135 98 66 84 57 19 14 -1 39 80 113 129 136 151 189 192 174 175 190 229 247 247 222 231 268 313
65 51 53 21 -5 9 6 32 43 59 66 73 75 86 107 101 70 61 69 23 27 -9 -14 49 136 145 199 269 299 333 340 323 288 215 147 107 157 184 208 177 178 206 226 228
58 80 32 28 15 32 31 38 43 71 69 42 72 92 126 58 64 63 23 49 59 84 94 98 140 227 309 338 324 286 251 220 180 166 138 118 139 150 153 165 178 172 217 262
62 45 37 18 9 11 7 9 32 58 80 53 68 129 113 138 94 -8 53 59 55 135 140 207 240 287 264 251 252 252 194 124 92 103 176 181 153 173 174 167 165 187 266 390
38 12 7 -0 -0 14 19 31 18 69 78 108 67 67 63 157 74 -34 36 60 130 179 244 253 219 219 224 216 185 158 134 125 141 173 144 144 146 136 158 191 224 245 348 438
12 16 16 12 45 56 61 34 57 71 108 81 104 48 108 105 19 -15 -29 52 168 170 215 175 163 167 176 148 107 100 146 146 143 138 125 109 120 142 197 258 277 330 375 367
13 35 4 23 39 34 68 93 97 76 103 127 163 204 155 36 62 106 91 63 42 119 106 117 118 149 113 102 90 88 135 102 120 118 107 90 125 178 277 336 348 322 283 238
16 46 33 36 26 16 75 96 58 102 142 193 239 296 79 109 19 47 90 116 123 133 152 140 115 94 120 52 48 66 90 89 92 77 61 75 133 204 307 341 303 264 216 154
29 50 53 67 39 42 77 65 81 130 223 273 275 244 87 40 64 131 105 110 103 131 142 117 107 133 106 107 119 118 94 68 63 68 74 97 142 212 269 319 309 234 216 158
64 67 79 96 73 60 46 116 119 160 224 222 256 158 114 95 137 126 120 121 122 152 103 66 87 150 125 142 100 76 68 78 79 93 102 124 169 215 259 277 342 340 288 191
81 70 73 105 89 114 110 98 62 130 176 192 144 125 122 131 119 102 112 99 99 76 81 71 121 199 222 177 84 84 82 93 109 129 141 182 197 273 339 406 354 300 191 84
96 84 86 59 73 77 81 97 149 89 69 127 112 145 92 116 101 129 113 68 48 51 106 136 135 216 207 152 96 108 114 146 154 165 161 178 229 215 166 127 87 58 11 12
117 127 124 94 107 84 73 23 78 96 109 150 170 117 108 99 94 94 35 55 60 46 89 121 224 223 196 110 123 123 132 153 218 183 154 134 101 107 99 104 92 85 107 131
139 157 125 112 124 129 73 136 156 151 118 139 99 111 103 80 101 150 135 133 107 101 173 274 295 265 90 122 139 162 195 222 255 297 286 233 200 177 151 132 145 142 100 84
101 130 119 132 146 160 127 34 96 133 158 112 159 229 107 79 163 191 103 233 181 257 227 240 75 73 89 117 198 275 311 310 329 307 312 234 163 149 145 121 80 78 104 97
167 183 169 193 163 143 148 106 140 160 214 172 213 159 82 139 185 162 276 203 244 96 115 165 92 106 134 181 224 259 207 186 160 109 77 109 97 103 109 98 84 95 98 91
115 117 162 233 209 145 123 98 161 234 149 142 121 125 148 185 173 244 303 255 205 123 16 70 105 116 100 132 198 165 96 113 116 127 120 116 110 94 104 100 108 104 99 99
115 112 181 221 208 120 153 218 211 143 127 130 124 140 142 158 256 318 250 217 148 48 75 96 95 118 122 127 168 136 135 170 152 149 117 96 92 94 98 109 108 106 96 77
214 242 224 266 251 260 277 195 132 131 137 128 153 154 167 266 325 309 219 149 48 17 80 87 141 136 140 155 161 180 160 176 175 126 90 75 79 80 102 115 101 98 90 75
194 220 344 281 284 206 165 100 60 128 164 192 239 310 389 356 271 196 62 34 32 60 92 131 136 132 145 165 125 94 119 133 128 99 75 67 68 87 118 119 106 99 83 81
215 328 253 189 172 169 157 143 151 249 306 305 335 246 199 102 72 32 91 92 106 101 121 120 118 119 100 79 88 104 104 101 103 90 72 58 73 103 114 115 101 98 95 103
386 314 268 278 166 199 158 236 206 154 145 206 238 104 67 13 22 58 80 94 132 129 132 119 125 100 103 123 125 115 113 112 101 86 74 72 97 113 116 111 97 76 82 89

GFSCGP_con_3kmhel_012.txt.gz
Helicity
36 29 -3 -2 -18 -27 -28 -25 -24 -5 2 -44 -17 12 41 57 55 35 24 60 96 76 53 56 30 37 91 106 121 93 81 76 97 120 135 117 115 108 124 122 130 184 221 248
49 21 -4 11 3 -6 -8 2 -5 -2 -0 -28 10 46 81 117 109 79 48 66 86 82 61 80 72 17 -2 33 54 58 54 89 116 175 196 169 144 140 124 137 128 183 239 261
26 25 40 16 10 6 -17 -13 -24 -26 -5 28 8 66 80 77 114 80 76 61 72 78 81 20 11 -2 10 9 34 65 77 98 149 165 167 174 169 168 166 145 173 182 215 203
56 55 41 35 3 -16 -21 5 -16 -9 32 35 50 63 93 96 78 94 67 49 49 33 7 7 19 27 29 52 64 64 86 132 183 196 190 180 165 162 171 183 205 175 157 157
27 48 62 44 5 4 -33 -9 7 28 51 61 69 90 95 124 99 84 54 6 23 11 10 48 45 72 113 124 160 181 210 256 241 203 159 153 151 177 200 199 174 167 158 137
52 44 52 23 7 19 8 33 53 57 64 83 69 89 94 137 139 81 82 99 61 37 64 83 116 161 201 211 248 256 254 238 222 159 120 98 104 144 118 130 140 132 137 129
54 64 41 42 32 29 47 53 58 77 94 62 52 92 155 207 100 94 131 106 54 90 121 120 179 228 257 263 254 241 202 168 111 84 71 108 121 106 116 135 136 124 134 177
65 53 48 21 22 11 24 28 50 69 75 56 71 93 204 263 216 207 129 68 87 119 157 185 232 206 224 210 184 131 100 72 50 90 124 130 128 115 105 101 100 149 220 247
40 12 5 9 14 9 5 32 15 53 65 85 63 75 96 212 151 64 -14 10 44 122 162 189 172 173 179 123 103 88 89 98 100 96 97 93 86 70 68 102 134 213 273 300
22 26 17 -6 15 57 53 28 44 48 63 62 86 52 75 233 133 51 -25 19 88 93 150 150 132 136 139 120 83 77 110 132 141 99 93 73 67 78 113 144 147 245 286 261
23 48 16 35 63 61 63 72 82 63 85 105 129 144 143 58 21 -24 45 65 102 104 84 111 92 88 83 99 97 99 119 119 132 104 79 77 73 71 110 150 187 210 233 203
28 63 52 46 48 46 64 91 85 88 96 148 199 247 69 144 35 3 58 94 114 84 74 84 94 93 81 137 175 188 149 108 84 66 73 69 73 90 95 154 224 252 313 281
24 61 67 75 96 81 107 85 104 135 145 154 201 197 133 78 47 100 124 102 79 88 98 87 83 84 106 155 172 164 141 97 61 55 61 43 56 103 169 244 329 336 325 314
82 82 90 90 60 59 72 123 156 173 180 178 254 161 108 93 134 106 89 88 86 78 70 102 126 100 99 159 191 192 136 74 76 73 98 116 123 110 183 250 306 308 303 229
117 101 105 107 78 85 86 83 110 179 206 189 134 162 135 165 121 27 97 79 94 99 96 104 105 104 130 193 309 247 98 64 67 100 143 153 133 145 160 185 188 186 128 93
129 125 122 99 67 81 109 124 135 93 111 115 106 139 143 129 76 122 102 47 47 97 115 115 108 100 159 138 203 67 41 73 112 199 179 142 126 110 108 124 137 130 117 108
153 165 166 101 87 66 71 86 41 60 106 157 155 128 132 166 139 30 12 3 73 121 184 156 69 150 161 86 76 72 105 102 167 244 285 288 246 241 197 141 151 166 130 113
214 227 179 142 110 81 55 101 124 102 71 96 119 117 117 145 61 -7 -7 99 139 148 153 131 99 195 108 69 84 126 188 242 233 259 161 110 105 96 96 110 101 101 116 114
173 199 153 157 147 128 76 45 101 72 90 114 113 156 148 69 47 24 111 202 234 192 172 133 142 76 55 86 156 180 187 193 159 106 109 113 110 119 124 116 91 86 92 91
199 187 195 226 169 125 129 84 107 132 157 178 200 166 111 178 169 120 298 368 184 215 144 112 42 69 97 119 108 134 149 138 153 144 125 136 134 139 113 85 75 80 94 98
134 145 186 209 203 146 134 76 123 182 141 185 161 155 180 214 241 277 144 101 103 138 37 -41 62 92 95 103 119 112 149 211 162 136 145 160 131 102 81 77 83 92 99 90
143 138 167 181 162 60 133 110 98 137 149 145 126 155 253 276 222 156 152 119 58 39 39 95 105 91 75 98 162 202 229 161 151 143 149 116 83 68 76 78 79 92 89 93
192 182 188 271 244 233 243 104 136 175 187 160 188 236 260 112 98 147 102 37 49 75 101 109 104 101 107 131 171 179 133 78 97 122 111 84 71 66 64 80 89 88 93 95
194 163 217 243 257 200 136 64 134 153 189 239 260 197 15 16 84 30 82 23 60 100 109 145 136 124 116 131 115 129 152 153 146 119 99 90 73 55 64 90 100 100 93 93
250 214 226 220 162 178 136 172 151 145 104 172 97 12 58 82 19 59 41 47 73 113 140 172 173 153 146 153 141 146 160 169 138 128 113 98 87 82 81 95 98 104 95 112
304 235 218 210 154 180 141 183 153 160 108 -65 -91 89 43 82 67 85 77 69 92 97 144 179 176 182 175 176 150 145 156 156 152 140 134 119 100 87 76 95 100 85 99 93

GFSCGP_con_3kmhel_015.txt.gz
Helicity
47 33 10 3 -3 -9 -21 -18 -19 -18 12 11 15 30 66 91 96 110 64 39 56 73 44 34 41 40 39 59 82 82 81 90 85 108 124 124 111 88 78 84 86 82 95 126
54 30 3 5 12 -4 -11 -7 2 3 8 3 25 57 64 127 135 112 67 65 75 88 65 56 58 14 -8 15 33 63 96 94 100 111 138 152 136 127 123 117 98 114 114 127
42 24 22 2 16 8 -12 11 1 -1 22 29 34 71 92 93 116 73 54 50 50 58 59 35 51 58 82 101 76 86 88 110 137 161 164 164 158 165 158 133 105 117 113 125
49 36 28 28 13 0 10 10 -14 -16 14 37 50 76 112 109 110 87 58 56 68 79 79 105 98 105 99 99 126 134 166 193 208 210 200 188 138 118 123 110 121 110 85 101
30 44 41 41 19 11 0 5 8 22 37 47 71 77 110 121 120 93 107 105 84 104 103 110 121 118 161 202 222 209 202 206 198 173 152 130 112 71 46 66 63 50 73 92
55 39 50 28 17 25 17 46 47 50 58 72 64 71 114 141 169 205 230 215 168 90 90 123 135 176 221 225 230 214 207 187 158 130 101 63 55 75 75 62 30 61 50 66
58 51 33 30 30 26 42 47 63 77 94 74 68 76 170 249 247 198 122 119 105 80 100 145 220 230 199 195 186 152 141 146 128 77 49 27 112 155 152 98 43 48 67 97
48 28 23 11 16 18 33 34 59 67 75 66 64 120 133 191 228 166 142 101 52 26 50 108 108 94 110 106 86 101 83 43 34 52 154 156 129 112 84 59 62 77 100 144
31 19 9 20 13 10 23 48 29 59 57 57 67 105 83 100 155 80 38 45 55 67 101 96 98 69 65 84 75 63 72 92 130 168 163 135 126 87 56 46 76 102 112 168
29 31 30 18 31 56 55 46 49 61 55 40 59 63 84 105 165 84 14 27 39 76 92 115 85 61 61 75 63 80 119 137 143 133 110 101 69 35 26 39 59 85 159 219
29 48 45 50 67 65 67 78 87 66 62 60 66 53 113 105 108 81 14 10 62 78 89 61 43 48 55 76 102 95 111 132 139 141 138 126 60 8 1 44 91 158 226 229
28 56 46 70 75 68 79 90 81 77 72 115 166 181 77 80 50 23 15 56 68 58 44 7 28 74 80 87 81 92 123 184 185 185 136 63 48 87 69 76 164 203 224 248
38 55 54 89 109 89 115 105 103 114 138 106 157 117 121 114 69 72 104 148 108 103 80 49 113 113 117 130 120 137 218 193 119 72 50 61 82 81 123 169 176 204 225 241
79 91 112 116 112 127 112 107 120 133 168 148 196 106 76 80 86 99 175 165 112 70 24 59 128 155 124 127 129 133 100 78 80 87 109 136 130 116 129 122 121 134 152 160
99 115 152 139 91 107 103 71 101 122 145 152 103 74 79 74 96 151 172 117 47 13 52 97 125 111 120 154 110 91 85 75 97 125 163 162 86 134 142 142 133 108 104 107
109 136 163 143 110 101 82 87 91 86 41 88 38 64 40 92 139 157 124 88 62 56 44 61 86 64 101 134 95 67 63 106 124 149 200 223 192 108 76 59 80 113 131 124
142 182 209 168 142 80 81 63 70 44 109 128 113 95 130 119 141 119 75 92 98 73 86 94 59 -2 95 112 88 55 99 108 121 131 116 109 94 80 81 97 108 113 105 92
189 228 238 241 171 153 119 84 97 68 32 90 76 88 117 121 103 65 157 170 131 85 68 -4 -19 67 64 65 87 103 110 105 98 103 123 128 120 114 111 114 101 88 77 75
144 231 229 220 195 158 54 41 88 115 98 108 126 139 121 87 56 142 232 204 110 86 8 35 66 64 83 94 98 75 78 119 119 149 147 125 116 117 118 95 82 70 63 54
178 191 228 234 188 165 108 118 96 108 124 172 146 172 98 107 176 150 239 103 25 89 47 45 83 87 84 75 79 79 97 141 191 188 151 136 117 115 86 77 68 59 53 68
155 154 192 181 171 122 104 69 106 162 201 188 141 131 133 139 198 204 153 100 75 24 30 58 80 80 74 82 98 110 148 171 181 149 141 92 97 76 69 62 58 55 64 83
126 130 154 164 141 72 137 117 131 166 136 102 127 125 149 206 150 46 -5 25 -6 39 38 50 83 89 106 101 113 124 123 112 116 130 118 89 79 77 66 55 51 68 82 79
141 149 160 188 213 158 171 143 139 141 139 135 95 163 184 113 90 -7 28 46 59 53 60 85 106 121 128 124 147 147 108 135 143 153 122 104 97 82 72 66 63 79 86 84
208 229 214 216 196 159 104 139 172 167 128 145 70 83 43 35 49 21 89 78 90 82 67 86 112 119 137 152 175 145 154 161 171 159 139 131 109 93 82 79 89 93 86 89
225 224 202 226 114 67 91 139 148 158 150 49 95 80 56 66 75 79 82 92 97 78 80 98 104 119 145 161 149 159 145 149 157 143 150 145 131 109 96 99 87 87 98 101
240 193 232 218 137 160 195 209 218 58 -12 18 35 99 91 73 77 96 102 89 84 95 88 86 99 145 156 160 151 155 132 130 116 119 142 154 128 114 108 93 76 86 97 106

GFSCGP_con_3kmhel_018.txt.gz
Helicity
44 13 37 35 40 29 6 -3 5 18 32 48 41 41 76 73 85 97 65 47 54 103 88 72 72 78 90 71 59 103 131 143 128 119 115 116 133 128 110 105 126 114 126 99
5 33 31 30 32 17 4 0 16 16 25 25 35 51 90 116 134 130 106 98 85 107 139 175 157 155 135 94 109 122 151 159 137 122 128 122 129 144 145 133 149 147 139 113
34 46 21 22 37 26 14 22 27 16 13 26 30 64 84 105 125 116 121 112 156 197 190 161 156 136 119 124 131 137 175 163 154 139 132 139 131 129 148 135 113 125 113 104
59 40 33 29 40 39 20 32 14 2 14 52 46 96 109 110 133 136 147 159 166 149 122 118 109 115 137 165 172 186 179 164 147 147 144 150 167 190 182 132 81 58 86 127
48 47 43 49 41 32 57 30 28 28 23 39 65 55 110 103 148 164 205 209 172 140 130 112 108 126 138 157 165 157 141 152 139 106 90 116 130 108 81 74 97 131 123 101
61 42 51 46 17 14 27 21 29 37 46 59 82 81 112 112 135 159 192 211 167 137 100 83 96 110 127 122 139 134 133 119 96 114 119 96 71 84 142 183 153 140 119 74
45 57 32 31 14 9 32 22 38 50 61 105 68 53 195 146 140 154 181 161 118 96 80 71 96 148 169 171 153 129 116 110 91 49 17 -16 121 152 173 166 151 123 81 63
42 40 35 19 18 17 36 45 66 68 71 73 44 81 89 106 160 178 123 92 75 56 34 99 153 165 131 95 73 57 52 38 48 79 145 162 165 169 164 149 115 90 57 10
15 38 32 34 27 6 30 51 41 53 53 38 79 85 80 113 155 177 143 73 26 24 60 110 119 102 60 41 51 70 85 103 119 135 167 159 148 136 113 73 32 4 7 56
21 29 40 42 27 64 62 52 38 56 68 45 59 48 33 58 60 103 126 80 40 24 60 120 93 80 68 93 117 148 135 116 102 131 163 156 134 122 80 28 19 38 59 93
18 22 56 36 49 58 59 65 75 71 72 65 38 28 181 88 112 105 66 60 61 101 131 111 94 69 63 101 116 132 117 112 139 166 154 116 94 75 57 64 95 113 119 133
11 31 43 80 98 87 92 105 102 89 82 110 129 70 91 41 81 50 98 91 103 96 117 128 102 75 78 108 106 135 162 144 136 118 107 86 92 95 105 96 131 133 111 105
29 52 57 84 106 110 118 116 136 116 126 78 108 76 115 61 51 99 84 125 128 145 152 133 99 80 106 122 133 105 130 121 86 86 106 143 115 100 111 109 100 65 64 86
37 71 84 92 100 153 154 82 81 89 160 96 97 56 20 73 80 71 112 123 126 119 121 131 121 125 119 103 62 89 101 91 95 98 109 138 129 159 164 129 100 91 78 78
58 81 99 87 72 97 98 51 52 96 81 123 46 41 67 72 68 84 118 105 94 102 118 124 111 86 85 80 58 101 89 89 97 82 115 163 132 117 96 82 72 78 103 115
95 116 124 117 96 100 76 56 64 4 2 52 60 54 96 62 89 116 103 103 116 168 159 97 99 48 69 79 112 101 84 80 68 96 107 118 108 116 127 96 76 95 98 87
100 127 153 146 90 76 66 54 88 82 78 77 87 110 93 101 123 129 133 115 173 226 128 76 98 93 83 98 93 82 74 72 79 96 122 135 138 131 118 93 101 100 79 69
151 179 187 182 109 104 117 75 34 29 25 71 65 110 108 114 123 132 260 198 249 177 128 106 87 85 89 82 75 68 64 97 111 105 134 161 160 133 113 101 98 75 70 67
121 183 209 189 154 92 25 94 81 81 32 70 105 166 135 102 146 155 227 144 141 82 88 94 62 97 75 84 79 82 85 75 102 134 130 171 131 109 100 88 73 63 62 61
189 162 170 175 148 152 112 107 40 84 71 178 162 118 64 101 194 197 203 129 59 78 95 105 77 75 79 89 114 98 79 96 112 119 109 100 112 101 77 67 60 59 48 61
224 196 162 124 133 109 82 102 113 108 214 172 151 147 153 187 250 164 45 6 89 106 91 87 74 90 93 107 114 106 86 104 142 108 105 100 116 95 72 66 63 62 72 79
184 174 145 114 132 58 120 73 132 134 133 164 208 188 175 140 95 90 94 72 67 71 74 88 103 105 101 108 107 100 104 135 166 130 115 118 125 103 84 74 74 78 79 90
174 143 156 158 168 110 81 80 94 122 141 213 168 122 76 80 60 72 99 66 58 71 100 112 111 105 102 87 97 109 113 141 161 141 140 113 118 103 83 84 86 83 87 104
163 149 221 170 127 51 94 71 200 200 187 149 67 45 49 22 55 77 66 70 89 104 116 128 113 100 82 72 109 166 161 159 121 115 79 70 96 114 84 98 105 92 105 122
131 165 134 119 74 55 127 230 193 162 108 18 43 43 39 64 78 66 79 92 108 128 142 149 119 108 83 78 112 145 135 130 119 93 82 86 106 99 88 94 97 87 101 148
135 75 134 166 115 152 214 206 142 100 -7 36 71 91 79 60 78 97 104 114 130 142 143 119 108 103 98 109 112 141 146 116 105 81 68 91 96 96 97 82 70 144 132 138

GFSCGP_con_3kmhel_021.txt.gz
Helicity
13 54 54 91 54 80 69 27 20 45 55 36 45 35 98 64 60 76 68 49 48 29 147 226 168 103 98 83 110 112 124 176 98 142 149 128 118 144 113 142 234 162 181 150
29 42 41 30 32 32 22 22 34 26 39 37 43 40 85 91 110 121 117 103 118 169 208 179 173 182 184 151 115 119 137 129 157 154 151 120 131 129 150 97 223 190 265 148
66 77 33 29 35 45 39 60 56 42 24 1 12 69 80 95 104 118 184 219 208 165 143 174 183 161 137 142 152 171 167 183 185 153 153 158 112 105 130 199 163 144 103 124
49 47 35 34 43 61 40 62 28 13 7 1 26 68 146 137 135 133 138 153 162 147 150 150 129 115 110 128 140 159 180 183 167 148 149 101 94 91 149 115 166 195 107 103
50 40 35 41 65 52 88 39 24 20 18 19 43 5 192 109 135 156 187 203 185 171 159 132 105 99 120 125 147 162 142 137 122 97 80 87 104 148 133 121 134 236 142 179
76 47 66 74 32 28 21 10 18 16 33 57 91 27 88 113 176 127 167 156 179 182 117 86 72 50 66 126 158 110 94 87 84 95 126 151 123 82 85 111 138 168 183 138
36 60 45 35 15 19 10 14 34 37 54 59 97 42 159 171 161 203 156 127 160 141 100 69 61 86 135 143 114 84 86 84 92 92 75 70 72 92 105 147 174 173 146 131
36 45 26 15 24 14 16 15 54 63 80 75 64 53 131 110 107 101 109 122 132 123 76 35 47 67 107 130 102 75 44 50 104 140 161 159 161 159 152 171 159 124 112 100
12 42 33 27 26 9 39 51 39 38 53 52 60 117 81 110 93 94 110 90 144 90 49 65 105 105 129 131 108 97 84 108 134 155 193 173 138 130 144 138 76 58 43 56
18 22 28 42 17 35 33 52 29 59 66 64 65 55 75 113 71 89 99 152 87 80 72 94 95 106 117 135 123 113 94 115 157 148 133 142 154 144 139 85 103 111 105 151
12 6 48 21 38 35 54 48 50 63 95 97 87 70 119 173 158 185 114 109 84 91 86 86 98 128 135 140 152 172 164 165 122 142 158 159 144 158 130 128 118 108 118 155
2 7 28 45 82 48 56 85 83 100 112 110 116 70 145 121 111 71 54 65 97 65 68 68 90 150 167 195 188 175 143 145 146 152 152 114 111 125 127 141 202 168 170 93
4 28 18 73 107 111 77 119 110 128 118 73 112 75 66 64 28 37 84 156 101 101 86 132 140 132 173 199 190 181 162 154 139 114 103 102 135 204 159 154 146 146 99 83
24 39 55 62 59 89 138 111 89 97 124 64 61 39 13 51 93 156 95 122 110 104 105 150 197 156 188 130 181 151 126 109 111 109 86 97 185 114 96 78 92 119 105 92
41 58 69 55 46 73 106 88 71 81 79 123 37 32 18 69 154 102 84 106 106 118 133 196 176 159 140 137 145 117 127 118 114 91 91 105 172 117 145 137 136 134 121 104
77 100 92 89 85 116 109 61 18 34 63 50 50 29 77 103 102 80 126 145 127 161 193 207 137 134 117 122 102 147 104 108 108 107 115 136 181 165 142 148 132 133 118 96
97 109 119 137 132 111 128 101 116 92 68 68 64 46 53 79 139 198 146 133 234 233 192 129 90 100 120 121 152 102 114 104 136 151 121 199 168 161 142 129 135 115 96 83
129 138 180 181 167 161 206 137 22 68 50 64 46 73 171 165 172 94 241 278 187 110 99 31 122 165 138 108 91 106 118 114 111 73 175 167 194 152 114 122 109 106 90 85
116 163 193 209 197 133 52 145 153 66 24 34 107 142 133 135 99 118 220 166 132 94 87 159 125 86 77 76 82 103 114 86 77 94 108 149 175 116 123 104 118 92 88 78
169 175 182 231 235 195 159 131 127 74 51 218 159 140 102 80 120 152 163 120 141 129 121 85 66 62 61 65 88 103 96 94 82 90 194 203 140 162 141 113 108 89 73 82
153 181 209 198 224 137 76 118 93 120 161 121 154 162 150 161 167 121 75 83 89 80 53 62 61 92 77 120 121 98 81 86 86 102 168 194 211 160 174 109 84 82 79 95
108 153 199 229 226 126 106 118 171 114 84 187 174 177 179 109 56 31 76 82 71 59 52 85 124 139 148 132 112 74 64 87 124 224 263 265 234 205 109 84 78 80 96 90
100 161 199 200 139 77 81 81 139 173 227 196 128 107 53 64 75 113 85 58 80 101 114 136 153 151 139 128 104 107 113 145 144 153 132 120 98 96 41 98 71 103 73 119
105 93 272 151 99 63 88 136 264 261 146 98 99 64 74 73 82 61 100 92 102 115 134 137 144 141 116 80 74 125 141 157 134 154 132 115 105 59 90 78 81 89 105 105
145 164 141 102 66 107 189 231 200 54 39 69 75 92 97 96 110 107 106 115 124 116 128 138 110 82 85 91 99 103 168 157 150 101 104 110 59 71 83 89 80 93 103 132
102 68 112 139 141 168 204 122 141 12 40 121 92 112 119 113 108 115 119 107 102 124 87 80 77 91 102 104 146 167 140 173 98 94 107 63 63 86 98 71 70 126 115 127

GFSCGP_con_3kmhel_024.txt.gz
Helicity
12 63 9 130 101 79 112 95 30 42 100 33 9 5 103 133 23 29 33 48 82 241 233 284 288 312 244 154 208 279 231 179 139 146 178 195 240 241 239 212 209 266 183 190
23 15 70 63 53 59 74 79 31 68 69 21 34 -22 158 151 95 78 101 99 178 201 178 170 237 307 262 209 182 174 164 185 185 224 174 145 153 134 136 112 157 196 112 205
58 125 35 55 29 60 10 51 98 68 39 8 -7 2 170 171 100 208 270 213 189 159 140 139 193 203 165 167 147 138 151 159 166 204 220 168 125 142 154 200 193 166 268 223
70 50 33 28 40 52 64 95 44 25 21 4 99 27 130 143 160 158 199 231 198 191 222 201 139 108 106 114 132 130 163 190 171 144 154 146 134 176 193 207 213 205 212 174
27 20 33 25 73 47 103 47 37 28 20 24 17 30 169 146 134 167 214 220 191 204 210 138 117 113 112 100 95 109 114 104 95 74 89 90 124 124 142 166 155 160 180 194
74 51 69 72 26 31 30 21 14 11 17 58 -26 31 147 32 123 155 207 210 166 147 119 114 68 29 -5 -8 24 93 107 139 135 134 102 69 58 79 128 127 162 193 181 141
16 42 41 21 20 29 -3 19 31 41 39 45 80 45 145 220 222 260 279 167 121 131 145 157 156 163 136 118 72 81 113 101 100 154 165 214 260 236 223 201 202 184 100 88
36 43 4 11 22 8 6 3 33 48 73 66 -1 61 180 182 176 152 122 102 118 113 82 73 73 78 111 138 200 188 164 135 119 164 242 203 215 245 233 202 167 116 126 110
17 40 35 28 15 20 28 57 34 40 59 57 28 127 168 155 141 86 66 61 130 105 98 41 117 99 137 141 155 155 142 152 198 219 200 168 213 177 189 189 138 130 93 77
14 21 16 21 15 11 15 30 38 72 81 87 62 61 91 88 66 46 81 216 196 151 152 112 129 165 190 184 216 202 235 251 279 279 262 225 216 217 183 143 86 113 162 168
50 -3 26 17 13 19 45 69 62 64 121 129 110 109 102 94 92 135 193 138 143 125 106 127 150 187 166 146 152 190 211 255 282 274 235 174 162 134 155 190 226 211 166 160
9 3 6 48 42 32 39 46 59 128 117 184 164 98 120 98 112 161 120 129 128 108 141 192 175 155 183 178 261 239 278 333 288 215 140 158 151 260 270 218 176 138 96 121
13 20 7 106 83 63 77 108 137 212 165 95 142 112 41 115 143 43 61 68 105 184 151 140 155 171 219 264 210 197 270 233 221 141 165 141 163 227 166 111 77 95 104 111
36 35 45 66 71 98 117 94 99 120 281 173 98 27 -5 33 85 67 123 170 197 208 180 187 263 220 192 182 161 228 181 237 187 181 155 135 166 211 192 110 124 146 144 148
51 54 64 41 46 97 124 103 104 79 72 130 73 38 29 92 75 172 284 229 177 150 210 323 238 117 136 140 180 159 201 199 183 169 143 168 143 331 272 196 157 158 164 168
65 75 76 52 63 137 107 99 54 55 51 59 62 44 58 54 226 211 185 166 147 212 231 209 128 108 124 144 159 138 122 150 200 201 213 183 255 304 237 170 164 150 161 176
95 97 98 85 91 64 120 128 148 98 77 76 96 37 55 155 263 243 151 158 200 204 160 132 93 113 185 149 115 97 130 130 191 100 176 126 243 276 232 200 187 172 201 174
112 126 129 114 88 103 168 93 68 128 137 79 45 44 235 283 229 145 199 222 173 158 142 112 99 136 131 130 91 91 117 119 142 197 147 134 283 199 265 194 221 277 210 162
109 110 137 129 137 105 57 179 142 150 44 76 142 288 238 217 159 86 255 204 130 113 95 89 97 87 104 107 68 151 189 143 85 88 240 138 143 122 187 167 278 307 172 127
118 122 124 182 158 151 172 181 193 72 111 223 221 190 155 125 80 67 131 121 90 64 81 66 49 77 91 113 158 220 200 126 68 77 75 69 106 138 238 360 291 152 85 158
152 143 155 127 140 111 103 171 118 172 231 155 165 156 122 101 80 82 102 76 104 80 61 55 83 162 186 184 196 222 145 123 107 85 119 139 166 217 214 221 257 110 118 140
128 127 114 101 149 110 157 169 260 201 168 167 200 193 137 93 80 100 166 114 85 123 141 158 198 215 207 171 174 156 196 182 195 147 97 80 105 121 117 109 77 91 111 139
141 117 121 139 136 103 115 170 235 258 304 211 173 162 67 50 143 155 90 112 147 167 184 192 192 188 115 96 117 150 159 275 215 166 144 113 71 56 89 97 71 116 138 144
145 87 151 191 193 130 240 261 281 225 202 111 66 92 121 86 115 105 134 157 176 162 133 174 130 96 129 118 118 180 279 224 187 180 119 89 88 104 81 81 86 108 123 114
129 115 126 137 135 173 254 244 179 164 117 78 89 119 118 120 124 128 134 148 153 152 171 135 125 166 194 153 178 235 211 164 166 137 105 93 78 69 75 91 80 87 109 120
139 125 127 146 240 247 276 215 162 130 118 203 137 113 128 109 141 164 161 152 156 169 130 127 149 161 170 181 183 143 138 180 149 126 110 75 34 53 60 53 58 94 96 93

GFSCGP_con_3kmhel_027.txt.gz
Helicity
46 37 26 48 69 36 50 82 78 128 98 40 16 26 148 152 120 89 261 259 334 453 386 538 575 530 416 251 270 282 303 276 261 227 179 182 217 213 178 161 148 164 208 257
19 29 42 15 18 64 69 68 94 31 60 37 78 42 91 195 253 253 226 166 189 221 297 332 363 385 397 316 224 192 188 159 201 230 208 205 192 185 199 259 304 310 296 281
38 27 30 68 48 99 130 78 113 111 66 13 9 104 206 221 293 435 275 126 89 84 147 195 214 224 253 260 206 149 108 100 136 185 192 193 197 192 174 176 149 158 206 240
45 49 43 44 52 73 96 82 55 48 51 33 60 91 259 304 329 411 410 324 241 161 92 51 72 138 153 138 121 105 77 77 101 120 141 148 125 125 92 93 120 195 250 253
16 29 86 92 30 36 47 37 27 31 37 55 53 89 189 315 314 303 278 263 208 186 129 73 69 67 50 53 47 44 120 124 83 71 70 79 86 66 65 122 199 197 158 130
46 46 36 42 28 37 22 55 56 90 86 81 51 63 230 221 238 359 298 239 196 142 102 81 75 36 -30 -58 -28 34 73 95 131 159 174 194 198 181 217 205 156 113 61 40
8 24 -2 23 13 13 23 42 54 64 56 51 19 95 109 262 293 351 401 333 226 177 145 128 130 81 49 93 109 102 125 111 138 170 213 222 252 278 249 210 164 135 93 54
37 44 23 18 41 12 19 38 42 48 57 30 40 73 136 285 298 214 188 85 70 76 75 74 137 132 151 191 198 189 184 220 248 249 275 257 244 213 166 134 84 114 114 90
88 19 20 20 18 33 1 38 28 62 36 50 52 98 168 120 103 26 49 109 82 103 139 128 200 277 275 237 196 178 197 260 327 349 340 296 240 181 128 79 152 174 161 119
84 28 -2 20 21 -9 19 14 42 40 58 42 88 106 68 85 100 78 134 140 125 200 230 231 205 250 184 158 143 159 214 308 349 331 291 231 185 201 208 247 217 172 128 115
90 19 -5 -5 2 17 17 56 51 62 129 122 80 81 28 86 86 89 187 157 194 201 224 185 215 208 175 202 200 179 264 330 331 319 270 210 162 183 205 197 188 124 104 134
26 7 18 22 13 13 33 73 108 113 81 151 181 84 26 227 210 136 180 162 142 167 153 164 186 209 277 225 184 168 258 254 263 238 204 176 188 195 207 200 185 137 42 55
10 19 35 25 32 21 38 121 182 243 216 144 169 71 40 93 68 92 123 282 273 251 315 344 266 226 214 163 156 131 209 227 198 198 207 200 204 202 172 264 213 163 91 135
56 45 60 69 85 89 87 82 101 230 288 199 196 109 24 44 -72 128 258 273 261 276 244 186 172 139 118 122 109 157 175 179 136 169 185 187 204 225 292 383 232 182 152 173
55 68 59 58 51 60 77 74 107 123 112 209 102 118 138 91 190 282 289 289 231 172 141 95 113 106 130 166 147 118 126 127 149 220 221 182 189 278 459 418 331 205 97 200
75 58 69 65 120 100 63 49 81 88 122 129 161 120 136 213 255 239 217 169 140 84 -7 80 112 119 145 143 125 124 138 140 105 129 189 158 239 241 266 263 302 92 73 243
79 85 86 67 101 86 106 89 128 135 126 166 177 134 169 235 196 116 110 99 40 32 82 131 140 151 140 115 146 207 196 196 151 132 203 187 222 113 150 249 171 133 122 224
102 114 113 99 116 131 94 113 150 200 243 197 234 309 324 263 107 87 43 64 65 86 119 163 150 140 114 137 187 218 195 173 172 155 165 145 53 38 99 75 117 185 185 259
107 136 147 145 133 100 109 179 139 193 232 199 275 277 218 156 108 100 62 113 67 85 105 125 137 156 183 221 206 193 201 166 119 190 168 117 40 26 17 189 280 289 201 257
164 145 158 169 172 113 145 207 196 219 231 214 199 188 156 85 87 71 128 103 75 82 156 199 188 162 183 145 114 122 97 143 199 221 140 127 96 75 50 105 151 146 154 172
168 152 164 187 160 92 99 165 186 266 189 208 197 176 137 103 87 78 142 154 157 195 189 164 142 156 131 96 119 131 182 208 231 187 142 104 96 77 83 75 72 73 169 179
136 155 139 175 153 101 94 207 237 222 257 272 251 195 148 111 69 150 193 175 185 189 159 142 156 150 126 134 160 181 272 233 225 173 134 107 109 84 73 47 86 128 152 153
190 140 139 177 126 94 167 230 319 294 282 239 195 136 135 145 194 219 170 165 159 159 157 178 180 146 147 180 171 208 187 185 137 99 101 118 107 93 93 72 56 62 78 74
180 192 217 247 132 234 356 422 402 335 229 159 154 142 228 239 227 186 186 186 172 176 187 155 136 136 155 155 181 188 157 125 127 129 108 105 108 84 62 52 71 64 58 62
145 205 204 222 177 296 298 330 355 248 174 131 126 206 249 251 220 207 174 154 152 139 116 119 129 127 142 179 172 140 129 153 151 125 100 94 78 58 57 58 47 32 40 56
181 189 205 176 124 193 248 301 272 207 135 202 255 256 228 256 200 169 156 157 141 117 117 116 107 110 149 172 135 125 154 141 145 105 95 81 50 47 52 47 46 66 51 53

GFSCGP_con_3kmhel_033.txt.gz
Helicity
119 61 43 57 44 16 16 65 30 46 61 56 56 109 180 224 270 308 300 373 464 498 432 429 449 420 422 335 252 180 163 132 168 206 157 205 212 217 226 207 198 190 157 151
90 75 77 38 36 23 53 35 79 123 121 91 159 204 193 216 255 287 388 457 478 502 506 526 484 411 318 201 159 198 188 140 97 89 88 109 128 122 85 73 93 92 99 103
71 88 60 30 37 52 91 91 117 93 109 131 167 194 207 203 233 269 304 293 280 261 274 294 247 153 90 81 89 95 60 63 59 65 68 72 78 77 83 112 140 150 137 124
55 88 65 72 45 36 89 124 120 113 111 106 140 152 201 212 276 240 232 232 182 164 129 74 -5 5 27 26 17 3 -12 0 20 16 39 46 59 68 91 106 89 80 91 91
63 47 60 65 38 54 54 73 78 82 101 135 174 199 177 230 241 197 211 205 119 2 -15 -21 -23 -2 -1 7 12 -11 19 17 -4 10 32 53 83 123 137 132 131 134 118 110
88 51 54 44 68 52 49 79 119 124 105 112 130 174 134 173 190 206 179 118 61 -1 42 -25 2 10 -16 39 35 58 84 47 67 112 125 141 143 128 153 141 135 118 111 101
105 72 57 59 58 57 64 76 71 74 52 40 108 106 128 55 189 141 111 47 0 18 -6 -60 -26 -21 24 83 83 75 119 147 156 191 196 181 176 152 142 135 131 127 108 93
52 79 78 71 41 20 38 41 39 19 33 66 95 125 100 115 230 111 50 82 101 110 42 48 40 110 134 151 138 149 172 170 195 210 214 180 139 114 124 113 103 95 97 98
37 57 61 53 50 22 17 30 19 57 51 79 100 139 143 144 226 218 227 256 203 142 142 166 185 229 224 186 142 144 145 168 174 186 153 104 114 144 131 112 115 135 129 161
27 57 48 45 36 42 12 9 8 18 52 62 77 133 159 151 177 165 140 116 187 210 275 320 315 272 225 166 137 140 150 187 171 177 167 150 112 115 131 163 148 149 117 164
59 46 51 45 46 24 32 19 27 30 46 73 75 85 111 168 175 136 116 148 259 366 348 275 286 266 212 153 134 117 148 160 170 150 120 128 134 139 133 135 136 161 178 194
85 48 84 52 68 53 29 35 44 57 47 83 111 104 100 121 173 218 293 301 321 356 341 378 299 223 167 164 148 68 121 163 121 106 107 133 123 142 159 161 182 169 202 187
75 70 82 76 76 65 57 71 77 87 78 70 119 80 155 257 334 315 367 388 394 391 341 283 232 199 168 106 59 165 142 98 121 111 118 130 149 149 136 111 115 151 145 205
83 64 32 11 21 50 75 92 92 121 117 127 166 149 236 299 354 352 354 372 357 326 302 263 234 162 110 94 161 160 202 186 157 158 161 165 158 126 134 141 151 111 112 185
86 32 67 88 90 74 71 94 110 129 132 153 91 135 181 272 331 333 329 294 292 289 270 226 142 106 156 126 130 206 200 165 141 150 152 145 146 142 135 120 97 84 132 202
112 60 92 79 104 101 67 83 105 98 120 120 158 156 160 265 302 299 279 270 253 203 157 106 197 155 129 141 180 160 139 128 126 134 133 116 142 156 131 106 99 108 146 165
87 79 93 59 106 100 69 81 174 140 149 197 217 152 258 238 260 264 229 193 165 160 159 154 102 88 138 159 130 116 91 94 83 155 151 158 146 129 115 88 72 76 112 134
85 117 130 93 135 119 96 124 97 154 158 141 191 224 267 239 227 210 176 166 139 107 116 96 95 130 132 97 94 82 78 102 151 176 170 150 132 110 91 86 93 98 126 160
109 122 134 124 122 131 128 140 201 188 115 152 192 225 212 272 304 207 126 127 116 129 132 147 119 115 107 119 95 66 88 122 157 163 153 133 124 115 96 96 83 101 111 119
172 176 163 157 148 104 81 128 178 174 126 158 231 228 251 307 266 177 142 139 191 199 186 161 150 138 136 108 65 104 129 155 163 154 138 134 128 113 100 97 107 97 116 131
130 141 129 176 157 129 87 182 227 249 107 123 163 194 260 271 207 193 200 218 262 258 221 187 177 152 116 111 129 148 152 144 136 132 142 145 133 113 102 115 103 116 127 122
113 134 126 201 207 143 147 284 217 118 132 144 178 203 215 214 231 189 250 280 279 254 225 195 173 145 138 144 164 167 143 125 126 137 161 153 137 121 114 110 118 123 104 96
146 134 125 138 112 118 55 138 133 160 173 182 235 222 246 287 261 301 260 244 251 231 195 155 141 137 160 155 168 161 132 118 108 134 157 155 145 131 109 121 134 110 106 87
113 150 173 194 127 112 127 133 169 204 199 238 262 293 298 292 243 212 245 230 217 182 154 134 146 161 157 149 152 150 125 119 118 112 142 158 151 107 105 123 119 101 78 64
106 150 140 167 133 161 158 170 203 240 267 318 328 329 324 264 153 212 224 203 166 149 142 147 156 149 150 168 153 138 119 136 140 137 154 162 139 100 100 109 100 81 58 65
185 200 210 184 114 151 122 141 231 311 321 339 388 386 325 213 220 214 182 148 139 139 138 153 144 145 160 152 143 126 123 158 148 135 156 150 136 107 93 91 87 64 52 47

GFSCGP_con_3kmhel_039.txt.gz
Helicity
80 41 46 39 36 15 33 52 60 54 58 62 59 33 47 71 105 114 103 105 117 127 119 112 110 119 186 218 213 241 252 130 100 30 -17 3 23 63 98 112 128 129 127 146
84 89 89 63 56 49 49 38 53 50 74 37 26 48 44 58 87 95 93 111 133 162 169 178 157 95 73 74 99 84 55 30 -27 -43 -46 -3 32 42 84 101 119 123 131 125
67 69 82 81 75 68 79 63 37 33 71 85 48 41 51 73 96 110 109 128 132 138 148 107 69 48 36 1 -20 -33 -43 -63 -46 -36 18 58 78 90 93 127 145 148 151 149
78 73 55 48 39 20 13 46 43 50 44 6 62 14 63 100 123 126 142 121 107 115 113 82 52 48 32 -0 -32 -20 -27 -11 8 34 28 49 53 77 124 156 159 167 159 131
46 24 26 17 26 32 -16 44 72 67 83 82 96 76 94 142 138 147 144 99 105 121 112 86 25 38 40 31 2 8 45 50 66 49 76 86 110 127 141 151 159 139 119 107
85 92 56 30 63 74 34 74 93 91 89 72 110 123 101 152 128 160 124 109 92 115 107 55 30 60 53 34 11 7 77 92 83 93 115 126 127 126 156 159 146 132 128 117
118 96 72 55 54 60 57 74 60 56 77 58 97 60 50 77 56 130 104 66 83 97 88 66 31 73 60 156 156 105 102 128 132 143 148 124 117 136 147 137 136 147 149 126
38 44 65 63 46 35 66 48 51 -5 2 3 54 20 38 23 29 75 90 60 75 74 47 40 66 105 134 128 110 107 148 156 146 145 132 113 111 131 119 127 126 123 119 115
60 64 79 86 63 48 23 53 57 48 33 26 34 36 35 62 92 111 154 169 133 72 73 84 104 149 156 151 147 138 172 181 141 111 97 90 165 132 106 107 120 136 153 168
47 62 79 63 59 91 50 56 29 45 6 9 8 14 24 24 70 96 140 155 125 111 110 127 178 211 241 223 190 193 189 148 123 121 122 157 131 113 111 131 152 181 193 204
81 64 46 54 49 34 66 57 66 46 27 18 14 13 21 21 77 122 126 137 134 132 149 186 224 261 252 241 233 190 188 196 119 81 146 139 128 142 153 178 214 216 174 165
92 64 58 58 51 52 53 47 51 49 33 72 74 33 31 6 22 68 108 149 171 182 209 240 269 271 258 273 238 231 177 138 89 175 177 159 149 167 199 197 159 154 141 131
66 72 78 67 56 70 52 65 91 107 99 88 97 53 51 29 47 93 149 212 250 273 290 311 295 303 296 273 222 210 179 71 188 169 145 139 155 170 163 147 133 121 118 114
95 81 58 -0 37 52 71 79 110 130 110 119 143 100 97 76 92 132 217 265 298 340 348 337 309 315 285 238 252 186 95 181 157 138 131 143 144 137 133 123 117 116 112 114
78 47 75 78 83 76 68 62 90 110 145 136 115 125 97 77 113 157 217 309 352 345 324 313 292 252 212 249 146 129 168 145 139 122 108 107 121 125 132 133 122 118 118 126
94 50 79 72 101 102 32 37 80 89 121 107 171 99 94 134 178 201 222 281 299 297 289 270 228 220 214 180 173 168 169 144 108 84 86 116 128 134 147 139 126 121 133 142
93 92 95 69 105 109 -3 40 125 170 189 193 180 160 149 115 113 153 222 255 266 248 239 221 205 190 192 169 167 175 136 99 87 89 109 131 141 151 141 123 118 132 144 132
90 124 118 80 96 89 85 118 119 91 97 164 176 166 111 137 131 153 164 205 209 223 229 223 206 180 160 196 157 122 94 98 108 116 131 154 159 136 125 123 128 141 158 145
108 108 107 88 90 88 84 105 117 116 100 96 104 151 158 156 163 119 152 181 201 207 203 201 181 165 234 163 119 101 111 114 119 142 152 149 140 137 136 138 137 135 132 127
137 147 126 119 89 56 63 79 79 91 111 99 88 123 157 167 175 97 184 198 234 239 240 243 244 204 193 132 106 101 102 121 139 152 139 137 143 153 149 137 128 133 134 118
117 129 132 170 120 93 73 110 95 155 91 75 66 99 114 96 125 155 174 252 260 266 314 282 269 222 167 107 92 88 115 135 147 134 134 144 148 152 149 129 121 120 124 116
76 89 87 127 132 73 66 104 105 72 77 98 80 51 88 181 209 216 243 317 352 349 377 243 265 243 126 96 95 98 119 138 133 129 135 153 145 142 140 122 118 133 143 125
89 91 101 100 98 85 31 52 91 112 114 138 131 102 135 224 235 278 310 344 395 331 317 254 280 151 97 93 102 107 122 128 125 131 145 161 145 135 148 127 116 128 130 121
75 124 138 128 78 62 44 53 89 141 156 127 121 123 170 253 331 383 436 458 413 433 245 253 145 110 82 90 109 112 110 115 128 138 145 134 129 118 129 128 120 119 113 110
102 117 113 104 67 93 83 80 91 105 113 136 165 166 225 328 390 430 527 459 371 391 170 107 107 85 80 94 99 97 99 121 132 126 104 97 113 117 126 117 122 126 105 103
118 112 127 109 90 94 80 79 88 97 113 137 205 303 344 416 539 639 547 336 252 165 167 98 75 76 84 94 79 89 105 120 119 107 87 90 101 105 118 114 113 118 89 82

GFSCGP_con_3kmhel_042.txt.gz
Helicity
35 41 28 8 27 44 17 10 20 22 30 25 5 12 36 25 28 48 34 45 58 65 66 79 85 103 170 199 193 187 172 156 130 -2 22 28 45 31 37 44 61 84 106 126
35 39 33 33 31 11 15 35 37 39 29 25 22 24 39 45 57 51 49 46 57 71 85 94 99 106 96 87 98 60 52 56 21 25 19 9 23 38 63 87 102 119 154 170
59 70 53 30 34 30 48 53 21 32 71 46 -15 -16 38 64 55 70 71 77 73 81 104 113 128 117 79 78 58 43 33 32 24 40 30 53 74 78 81 100 125 160 164 154
66 63 65 62 57 44 35 48 33 8 -42 -24 12 1 89 77 69 80 102 99 112 128 125 134 137 110 86 83 54 45 40 31 32 36 74 64 55 82 146 155 197 222 199 181
46 43 48 43 68 53 36 11 11 4 -6 -2 13 -2 120 84 67 102 126 140 142 140 148 155 135 108 89 82 76 23 25 80 110 103 108 98 130 161 168 181 190 185 176 153
74 86 74 50 60 12 21 -3 8 3 11 -11 37 30 16 73 65 135 120 122 153 157 144 134 122 77 86 63 43 95 96 105 121 111 140 155 172 165 129 122 129 146 144 135
37 62 56 38 6 -10 -45 -63 -11 -8 6 2 79 20 -3 90 57 58 91 108 124 135 122 110 77 64 85 113 115 117 97 137 162 177 185 178 174 155 127 146 152 139 131 119
-13 6 33 47 22 -11 1 15 4 4 1 2 6 -1 36 36 23 29 63 81 100 95 88 75 68 73 113 142 110 114 138 187 212 205 197 188 133 156 145 145 133 116 114 142
20 38 60 70 45 40 30 13 58 36 15 -2 15 11 -7 24 22 55 98 131 144 116 92 82 80 93 134 143 133 156 199 227 222 211 214 179 139 123 133 124 130 148 153 181
51 35 58 65 72 94 50 67 21 25 9 27 23 18 17 21 38 59 89 109 112 113 123 111 107 130 154 182 189 229 248 253 254 212 200 162 112 144 132 135 149 182 182 160
62 57 40 63 32 30 63 45 50 45 39 39 35 36 36 31 29 48 68 91 106 129 129 131 144 161 201 231 264 280 266 284 224 198 162 107 157 141 136 152 173 171 144 130
103 74 53 46 64 68 65 33 31 42 28 45 44 27 43 31 21 48 72 98 96 130 150 161 189 208 241 278 286 284 322 300 164 142 99 143 143 137 150 166 155 145 118 103
83 73 50 35 32 43 31 41 52 75 65 32 58 42 80 65 25 40 71 127 151 180 189 201 222 222 256 273 291 316 252 165 131 116 145 154 136 140 154 150 129 110 103 96
72 80 40 6 38 53 32 51 46 39 73 58 63 22 104 86 69 85 80 137 168 213 219 207 211 241 278 266 308 309 137 108 159 138 129 133 140 146 142 131 111 105 110 106
83 32 46 50 53 42 48 33 33 43 23 71 29 37 29 98 89 92 103 147 195 224 250 248 247 273 275 282 276 179 146 175 137 129 118 128 126 127 134 113 103 114 120 126
88 37 56 41 50 65 49 47 36 29 25 33 20 23 30 81 108 102 119 147 165 214 242 238 263 270 260 248 225 195 180 168 129 103 100 107 116 122 119 111 112 118 122 116
75 57 52 42 68 57 4 14 60 82 95 90 75 52 133 101 107 91 87 109 122 177 237 260 247 230 241 236 216 195 194 141 105 91 92 112 124 115 112 119 126 119 118 135
71 91 92 54 55 53 81 77 87 51 26 55 45 89 99 127 116 107 81 92 123 190 232 238 249 267 258 252 299 217 142 111 84 78 95 110 114 115 127 132 125 121 147 135
91 88 81 71 66 74 28 88 85 81 81 75 48 70 96 125 123 93 71 92 134 181 202 232 234 233 265 309 197 243 147 105 87 91 91 107 118 114 123 124 140 142 151 122
119 114 95 92 56 40 89 92 81 50 52 88 75 74 75 91 124 145 47 97 162 200 253 292 314 292 330 292 178 142 123 101 92 88 95 107 108 115 124 141 148 146 131 116
90 109 96 113 85 65 85 91 78 83 148 80 51 68 79 85 87 112 111 156 192 256 303 342 359 375 357 278 115 119 111 90 100 100 96 94 109 127 134 133 128 124 120 124
64 77 80 108 90 56 93 69 88 120 81 109 117 121 102 93 123 159 186 255 327 384 398 395 427 303 220 195 174 134 83 101 94 86 82 92 112 126 132 110 110 127 120 125
76 95 102 78 107 114 41 62 116 116 109 114 132 153 123 137 163 202 245 282 359 428 498 546 399 290 277 247 98 68 92 84 79 79 84 95 105 118 104 108 105 125 118 127
76 93 112 97 84 66 54 82 96 100 89 97 90 112 119 130 197 252 347 407 474 512 496 441 360 182 240 101 64 60 73 72 70 76 84 105 110 120 94 100 102 108 113 121
123 72 81 83 70 89 128 118 111 115 112 114 133 134 136 171 231 303 380 453 536 455 466 397 230 160 77 64 54 55 63 67 61 70 96 106 109 95 87 89 93 100 109 115
106 148 125 131 138 111 109 113 91 97 130 150 163 198 237 257 293 411 506 520 519 510 378 238 113 57 45 43 39 58 64 60 67 93 109 109 104 98 92 87 89 112 118 132

GFSCGP_con_3kmhel_045.txt.gz
Helicity
31 12 12 27 46 -10 36 16 -2 51 18 -6 9 47 24 22 16 25 35 43 53 66 101 36 39 41 63 175 211 220 252 152 142 88 51 38 23 65 49 47 62 71 59 60
40 20 19 19 5 2 22 7 12 40 3 -8 8 34 37 35 37 44 64 65 62 79 77 63 69 94 156 211 217 169 115 73 46 48 41 32 56 58 59 63 53 75 96 115
62 48 9 23 5 1 18 29 70 19 32 14 3 39 44 40 41 42 55 50 69 82 78 93 110 141 164 139 101 77 69 76 40 77 83 86 87 88 73 77 76 127 119 136
26 98 15 6 10 24 7 49 26 22 25 48 23 15 52 88 107 85 71 81 119 99 145 110 122 138 135 108 70 48 74 51 80 76 104 110 99 99 132 145 182 155 169 170
-5 3 16 -4 64 40 38 31 19 10 7 -9 13 -16 159 92 119 113 102 90 106 175 141 128 136 157 149 103 74 84 70 94 133 99 120 87 82 154 151 153 201 147 157 133
40 59 44 71 41 42 24 -1 -8 -19 -0 8 23 -0 34 114 41 125 116 89 138 131 155 145 180 173 160 104 119 119 80 153 143 123 123 137 198 152 155 152 129 107 148 131
25 27 50 34 34 21 -13 -6 3 -1 18 -6 82 40 -7 88 120 108 132 82 104 112 149 174 170 142 115 105 120 123 125 140 146 160 179 196 202 185 203 168 136 175 143 162
25 38 46 33 27 23 -23 41 9 21 23 19 70 11 81 125 62 69 94 80 96 88 110 123 118 104 105 121 138 112 106 143 161 190 214 223 217 177 182 166 148 145 141 147
25 56 78 64 38 26 6 -13 66 44 28 16 -2 31 51 45 43 44 96 99 104 109 116 105 119 98 130 125 133 105 145 204 243 253 257 253 193 168 152 169 147 116 144 137
30 27 18 45 16 14 36 81 13 17 22 15 13 24 67 27 35 31 84 104 112 83 98 97 120 131 132 119 162 141 173 244 274 276 275 241 203 105 136 134 124 142 138 135
25 29 4 31 -8 10 36 16 21 61 48 44 64 43 96 47 33 27 41 88 120 95 95 95 126 154 142 167 216 179 220 327 299 308 265 181 109 142 116 117 150 152 148 120
52 40 29 -14 91 70 78 32 20 35 19 38 64 46 24 67 32 27 47 94 98 119 114 116 141 205 164 182 189 237 258 340 330 338 246 77 126 127 123 135 144 149 136 121
82 53 25 42 44 52 30 12 25 33 82 37 51 42 53 84 63 51 49 90 92 116 150 177 204 200 201 180 218 280 306 369 373 291 54 86 123 129 123 140 153 137 126 111
135 39 56 -0 26 67 21 10 20 40 46 27 -14 16 56 76 53 75 88 68 109 115 166 224 204 188 191 205 271 290 372 302 222 150 103 152 160 127 136 150 138 128 115 112
97 52 23 28 68 67 62 41 24 -28 -12 -35 19 -2 24 46 72 99 105 115 95 170 156 198 200 184 202 262 285 366 317 251 197 124 167 167 146 128 117 124 133 118 111 113
76 57 74 46 41 33 30 25 22 20 20 -20 -20 -35 27 113 112 121 82 139 103 123 133 158 170 199 226 261 299 257 306 240 230 214 199 128 120 105 100 136 117 108 118 115
61 68 49 35 74 65 22 2 -5 -15 22 42 31 36 120 154 87 81 111 125 90 89 115 152 180 222 249 317 234 291 287 326 242 229 130 128 111 101 115 110 117 130 131 113
63 47 90 52 43 38 49 69 82 67 31 26 42 43 79 109 135 122 103 92 99 82 109 163 227 272 293 282 271 358 389 248 236 149 117 84 88 93 92 100 114 118 126 158
83 89 73 64 34 51 35 83 63 70 70 124 106 104 134 144 85 29 61 79 78 89 152 216 238 295 275 274 352 283 264 272 325 286 106 57 87 89 88 90 102 122 129 167
105 89 75 79 63 33 96 94 73 77 60 207 143 119 98 61 90 161 165 84 72 125 179 205 284 268 276 287 353 347 275 192 207 140 112 72 76 76 82 93 96 128 134 133
95 114 83 75 82 71 136 95 84 74 200 139 80 90 101 88 222 191 115 78 102 165 224 316 340 305 368 481 472 344 255 154 112 81 69 60 63 69 87 98 105 95 142 157
57 65 79 103 85 53 130 119 128 158 111 121 105 124 143 151 168 141 118 154 193 273 367 356 358 490 541 428 432 400 348 128 77 66 55 55 58 75 104 108 93 116 164 145
69 77 90 73 102 144 110 146 150 124 110 121 122 113 125 109 125 158 173 263 288 383 356 445 577 628 624 398 301 316 125 90 69 54 46 58 70 80 90 95 127 156 137 137
91 107 113 108 126 122 151 146 172 172 146 122 109 109 103 105 133 250 207 332 364 445 539 518 463 434 354 289 190 78 86 68 43 48 60 71 79 96 116 108 140 149 122 133
150 93 93 96 95 148 189 191 168 124 98 106 142 140 145 139 247 306 352 396 521 536 434 461 565 498 169 46 48 42 51 60 51 60 66 73 100 98 111 115 125 142 139 135
114 132 116 149 203 166 233 197 107 120 144 153 176 219 269 309 356 490 535 497 430 456 457 277 93 13 -3 5 19 26 48 59 72 76 86 106 125 120 118 117 128 110 139 141

GFSCGP_con_3kmhel_048.txt.gz
Helicity
36 -2 6 36 25 26 13 9 6 22 25 5 -11 91 88 37 4 80 64 51 61 65 104 162 71 80 175 272 314 341 277 201 166 146 118 121 130 83 88 75 72 43 47 72
12 31 35 57 31 61 47 27 24 26 33 -16 -8 39 98 49 41 23 87 116 103 99 161 133 97 120 182 301 405 348 230 166 73 65 91 81 89 86 84 102 73 100 87 61
-21 -78 103 33 73 44 29 54 90 102 36 -7 -18 -4 98 67 7 -4 65 97 114 148 206 118 124 125 243 411 394 241 165 91 20 95 117 114 114 169 159 146 74 108 73 82
21 5 146 142 30 26 35 73 -26 71 -93 15 38 -33 153 44 36 40 51 115 166 172 217 125 119 238 267 239 231 101 48 39 58 118 123 142 158 131 101 133 203 196 159 131
35 3 16 37 15 27 -53 15 83 5 22 27 89 -43 101 49 52 37 44 43 64 119 150 219 288 221 152 141 60 2 37 89 140 139 161 130 129 210 211 241 338 278 182 169
69 63 197 98 29 34 -5 -42 19 2 10 68 138 65 92 103 7 25 43 78 122 161 201 210 190 141 53 60 82 155 140 191 191 151 182 127 152 243 286 240 252 194 156 231
30 -12 14 15 -18 29 3 -5 26 63 -16 20 -6 33 2 -34 21 185 96 149 114 287 267 239 217 221 287 191 168 150 130 254 213 164 195 242 273 300 306 303 244 271 260 234
61 -6 -12 39 28 62 51 22 -13 32 26 27 144 5 82 162 128 132 190 162 203 202 212 161 209 219 231 195 174 133 161 250 222 206 229 275 287 235 281 298 253 238 252 225
46 110 143 142 19 39 68 18 25 12 16 -10 3 12 93 106 92 77 132 150 186 154 158 152 186 217 213 186 155 120 176 244 279 240 333 347 322 352 309 269 249 236 251 218
41 3 48 46 20 19 25 42 14 5 22 13 18 -26 193 57 50 31 86 120 178 150 141 118 173 179 211 202 176 128 139 324 301 385 409 344 349 296 212 183 148 259 218 204
12 195 -30 33 -19 12 16 -19 27 15 25 43 42 49 76 72 55 44 9 144 159 165 149 143 164 209 197 240 226 256 172 303 396 509 412 478 422 335 343 84 195 243 223 180
26 37 61 -14 23 81 95 63 10 63 38 79 63 47 34 55 51 30 35 115 138 211 154 159 130 237 274 334 323 332 254 366 480 551 564 357 288 188 159 175 183 220 197 159
46 58 36 37 21 23 34 9 38 52 111 75 66 59 49 66 52 63 35 80 147 177 175 162 156 272 330 373 396 316 327 352 527 558 343 175 156 208 261 178 219 213 169 171
86 71 41 32 8 54 29 -8 13 33 106 60 9 26 31 104 96 63 97 64 83 167 138 131 169 272 382 401 346 320 397 529 543 317 206 288 179 315 280 223 207 184 194 160
106 63 37 29 32 34 59 94 33 30 25 50 32 26 6 28 77 49 78 105 122 72 111 99 199 339 406 359 318 395 544 547 332 281 261 316 404 385 205 164 168 187 150 128
93 86 89 95 101 77 29 49 61 20 18 9 13 28 20 89 132 179 242 182 134 149 98 213 194 264 299 299 412 525 513 351 237 297 421 420 260 152 219 206 154 113 132 159
70 88 110 66 100 118 41 22 8 8 14 27 37 39 49 75 92 182 160 103 175 110 123 176 178 216 280 380 442 502 390 318 420 468 424 189 170 178 173 130 111 131 155 139
89 61 116 79 80 65 9 89 88 82 74 69 101 130 134 193 229 154 112 132 156 150 107 128 189 290 389 450 484 489 423 468 518 437 204 245 251 164 86 85 101 117 142 177
96 119 107 99 74 43 53 79 77 69 82 199 188 175 186 214 127 168 202 208 183 163 131 167 290 403 481 494 529 551 529 485 358 388 297 232 193 94 109 97 96 124 149 172
133 125 110 98 87 38 70 101 96 73 76 201 196 144 109 74 73 196 219 147 106 81 112 224 386 458 476 529 488 511 592 584 655 384 273 142 90 90 72 86 123 138 140 139
111 147 118 127 97 78 128 145 75 81 169 200 129 99 134 141 172 166 147 144 132 194 267 413 469 461 592 686 642 625 572 380 387 309 103 73 49 68 89 116 152 149 141 216
58 78 87 127 101 51 131 110 125 198 159 149 124 133 152 121 142 156 113 181 256 384 481 536 631 720 718 687 681 691 644 569 185 54 34 40 63 86 94 106 131 131 177 224
52 56 61 72 68 115 148 249 224 189 179 183 171 137 139 128 125 152 185 317 416 503 656 712 717 741 683 566 387 317 155 49 16 28 34 59 79 84 96 114 134 162 232 198
71 131 98 123 72 95 215 301 277 231 170 146 146 155 118 124 123 249 354 469 593 608 598 486 408 404 389 174 91 28 -7 -0 -5 39 62 68 82 97 120 124 124 160 205 206
127 128 68 84 116 240 333 403 222 165 166 151 220 191 152 145 318 441 603 632 548 400 286 242 183 139 81 20 -0 3 28 71 62 61 81 92 106 119 134 140 141 170 187 204
124 142 131 163 250 271 365 293 206 213 200 226 271 266 351 414 443 488 443 354 290 211 161 120 66 36 35 42 43 50 48 65 97 106 116 134 153 163 165 152 179 157 130 87

GFSCGP_con_3kmhel_051.txt.gz
Helicity
13 6 16 21 -15 27 24 122 164 61 16 82 126 40 108 108 118 98 75 60 88 123 110 128 215 283 339 336 406 315 312 234 249 231 188 151 121 118 77 57 69 80 104 119
-31 -80 -22 97 -25 11 11 19 8 -10 -22 40 16 99 120 65 166 123 115 142 187 178 208 178 222 296 384 429 438 358 312 219 196 172 110 107 125 68 47 88 112 114 122 104
-69 -41 -36 -25 -9 -18 -21 0 -4 27 66 7 -59 45 28 13 84 129 148 184 198 320 301 304 258 285 357 472 429 343 284 197 154 86 83 126 132 139 165 158 145 128 120 102
-32 52 13 8 68 93 -10 71 29 38 9 15 48 8 -50 -47 37 88 172 155 223 288 347 305 285 326 434 410 321 225 180 122 83 45 123 143 167 204 153 133 135 140 121 107
-35 -13 57 36 106 18 -17 -44 -16 12 27 52 22 74 -7 7 -38 -11 37 192 243 300 407 362 379 360 320 269 160 101 145 98 80 113 164 190 173 174 187 214 244 197 158 157
34 2 -21 0 26 48 14 36 39 41 20 42 65 141 -2 -1 102 55 -19 46 129 270 301 310 305 317 299 228 164 156 114 71 94 164 177 192 187 285 352 330 292 247 224 248
33 18 7 16 -39 109 56 31 85 74 1 -35 -12 124 62 7 -33 60 19 -6 118 216 347 379 367 373 292 176 143 123 99 123 206 283 248 257 319 355 373 367 373 355 294 353
64 43 57 25 1 25 73 20 65 45 37 44 22 17 -2 10 28 42 95 74 72 230 343 290 318 347 289 220 161 161 245 275 261 269 325 347 357 402 431 434 387 367 330 311
48 92 45 104 79 51 -3 63 51 28 17 47 2 56 136 144 131 111 84 132 290 327 300 312 339 325 308 308 254 239 278 287 306 310 313 346 391 403 423 408 419 485 518 372
88 98 93 -21 -7 30 33 10 6 37 30 3 41 23 74 96 33 80 145 187 217 242 233 249 329 366 360 325 245 219 242 269 305 379 392 403 448 402 392 381 436 315 291 263
161 106 77 81 92 -1 9 30 50 63 65 32 50 55 16 10 36 2 67 179 229 250 237 257 311 353 372 341 287 183 204 303 406 480 518 627 589 545 366 454 172 359 215 227
50 88 22 1 9 49 48 27 43 79 42 60 34 35 50 68 65 60 -25 137 230 285 292 257 277 356 379 365 329 288 346 451 546 661 658 602 536 448 285 300 270 205 222 218
115 75 101 75 9 61 29 49 57 65 132 100 120 41 24 68 122 109 30 62 188 237 287 288 286 312 388 404 423 471 523 591 619 574 564 480 373 277 291 161 298 234 281 237
100 109 80 63 34 44 41 49 27 41 140 90 82 42 12 23 183 82 48 95 111 188 239 258 261 309 490 497 422 516 536 549 617 596 466 371 378 221 264 456 330 262 203 175
96 78 104 93 61 19 39 85 80 48 14 132 35 50 20 27 110 110 81 64 97 101 125 197 321 494 464 430 466 534 547 577 552 469 474 567 454 506 443 414 228 173 155 125
108 96 119 101 104 114 61 133 73 56 101 67 35 36 34 23 71 133 173 180 192 224 223 227 345 360 347 388 482 541 544 514 517 628 640 513 474 527 283 229 153 174 136 129
102 128 168 132 123 95 48 17 47 62 70 63 55 74 134 157 159 140 162 205 171 179 200 169 119 111 195 337 422 520 525 629 694 642 549 525 497 322 228 231 158 107 104 107
116 122 135 110 124 111 27 68 80 69 116 139 175 128 164 209 237 248 206 204 268 252 184 150 196 316 421 505 570 594 652 645 578 588 615 572 482 374 304 130 86 68 72 116
140 174 143 133 115 74 31 102 70 71 147 154 166 195 132 133 195 229 212 195 186 174 194 263 362 453 589 628 651 703 718 680 666 621 617 613 565 150 69 28 18 79 139 151
246 183 161 152 127 54 28 73 121 105 138 161 186 187 164 126 102 56 156 184 227 250 291 446 572 671 730 713 774 833 787 728 665 710 830 248 122 46 11 21 57 120 148 147
178 229 184 176 132 83 91 117 99 120 92 164 181 163 123 76 53 86 156 273 362 474 572 648 699 721 699 674 675 707 683 684 617 300 135 74 18 -3 33 80 106 120 132 174
94 124 121 166 143 74 123 173 127 135 250 194 187 168 152 143 111 171 307 414 523 568 614 628 666 673 630 568 529 513 452 210 138 96 50 35 46 63 88 92 102 112 136 188
100 78 65 77 60 102 247 289 265 257 238 200 171 167 170 175 179 371 503 536 533 528 495 459 428 410 338 328 281 200 205 148 93 90 70 60 67 74 93 112 116 137 149 200
155 119 114 103 75 314 367 365 301 235 227 260 241 197 131 163 297 478 540 523 510 436 340 244 228 216 207 184 175 146 84 83 87 73 61 64 85 96 104 128 146 165 170 195
116 167 129 179 292 443 417 357 324 338 309 295 304 271 286 349 418 464 468 424 332 280 249 232 243 234 195 154 127 95 74 69 74 74 80 97 115 119 135 153 173 188 196 221
162 155 179 153 245 289 338 365 383 379 325 275 259 291 308 322 339 356 351 317 272 239 236 218 167 147 132 121 109 72 48 63 76 98 132 162 178 181 188 188 180 169 193 170

GFSCGP_con_3kmhel_054.txt.gz
Helicity
15 4 -9 60 58 54 73 15 -2 54 119 134 54 -6 26 93 111 163 153 188 141 83 -1 84 182 191 160 141 194 193 206 196 248 263 259 231 185 157 154 136 129 150 148 120
-6 -1 -21 -23 -9 -18 -4 57 64 101 -18 159 47 56 35 136 189 235 200 180 156 118 192 169 198 210 235 235 183 197 192 210 225 250 245 186 145 106 101 90 99 127 135 134
36 -12 -6 -12 12 -25 -71 -24 23 62 26 25 32 10 16 -10 29 62 125 191 200 247 330 332 309 312 308 315 276 224 217 204 211 221 239 187 188 177 141 101 119 120 135 125
-21 14 -13 27 21 -4 22 26 59 53 15 23 40 3 54 39 78 107 90 138 208 243 366 397 431 421 443 352 327 277 244 183 165 206 222 189 179 220 125 153 151 140 131 113
-1 9 31 49 26 57 161 29 10 74 12 16 8 56 34 57 65 121 159 165 257 300 356 470 463 487 482 446 407 350 195 152 149 200 173 149 140 147 161 195 207 180 138 148
3 16 41 51 17 -21 4 13 54 63 53 22 32 51 -14 88 223 204 214 167 212 298 308 442 442 446 314 293 346 271 181 126 139 175 114 157 151 186 237 256 254 223 264 341
42 36 18 27 27 14 -3 54 49 53 61 -17 57 55 31 28 -1 61 109 158 132 276 312 416 466 394 318 284 252 284 259 209 145 120 124 152 176 236 243 313 317 378 450 500
26 36 36 49 0 22 -5 30 40 28 18 41 42 21 15 3 4 -2 -13 77 182 189 296 354 406 339 337 268 254 250 184 170 146 155 209 212 244 331 352 373 413 495 499 376
4 76 34 4 54 50 45 42 48 68 55 71 30 36 54 63 55 4 13 88 130 220 256 293 362 340 259 246 234 192 186 213 217 257 347 374 399 447 489 538 488 540 377 219
33 61 33 36 28 56 57 35 51 73 13 34 33 46 47 54 12 4 -10 50 96 165 181 221 228 241 228 205 159 191 219 256 290 327 344 376 415 482 500 505 547 429 487 332
115 122 84 84 72 71 49 57 51 63 78 34 22 61 6 9 14 10 -12 14 115 169 181 189 196 200 215 216 261 241 250 307 349 436 496 603 554 655 727 598 461 411 453 326
135 148 123 57 39 -9 36 7 41 85 48 76 60 31 42 31 20 66 40 63 116 181 183 227 264 329 331 347 344 348 291 340 483 645 768 755 729 625 531 443 581 162 182 348
104 110 131 138 91 53 30 -4 64 113 133 84 115 50 61 52 42 44 76 41 86 152 218 265 349 382 404 386 341 470 610 611 648 730 754 657 665 628 366 349 406 361 169 261
187 148 119 108 55 84 82 65 55 84 115 119 121 96 81 36 58 73 96 73 83 157 200 265 332 340 368 426 577 643 520 608 522 685 612 532 542 366 405 346 265 338 389 255
165 123 103 86 102 108 122 139 133 97 74 105 61 91 35 43 18 40 74 115 131 114 138 203 298 393 465 560 619 574 642 623 646 573 633 554 495 498 518 436 459 420 243 243
137 91 92 86 143 117 94 107 141 122 81 71 92 94 101 149 170 203 193 241 257 215 155 185 302 384 447 518 593 617 603 568 599 626 623 620 557 560 464 373 458 375 204 148
156 146 152 94 153 137 117 81 84 91 75 67 104 122 144 371 337 282 266 268 244 195 145 155 208 294 356 385 483 512 573 660 701 672 592 548 512 547 560 623 255 120 94 64
157 174 142 90 150 137 96 87 103 193 190 159 243 187 212 252 276 306 266 222 221 203 194 193 241 340 389 436 524 664 682 679 642 629 617 618 632 655 505 138 41 103 66 54
173 173 149 134 132 113 75 65 116 125 172 155 165 135 122 136 255 270 219 201 194 222 262 299 344 447 522 589 656 739 732 698 689 672 626 627 689 433 69 101 109 62 77 104
258 191 152 137 129 91 35 70 153 185 177 162 185 156 95 92 143 128 121 190 289 311 305 355 390 495 635 625 697 734 671 630 586 531 526 442 113 108 171 139 112 76 93 114
246 232 185 219 154 124 58 74 129 167 104 177 162 131 107 108 88 77 187 299 330 359 401 436 523 522 518 521 525 506 442 418 368 345 162 91 144 129 112 93 86 92 97 128
184 181 187 214 210 123 101 184 158 127 194 185 175 122 123 148 158 228 284 311 325 348 389 405 451 411 357 315 277 275 272 217 189 150 173 157 138 117 81 88 88 99 121 139
197 157 127 119 88 93 90 106 153 174 208 174 156 128 165 215 280 323 352 358 370 384 361 310 297 323 268 265 247 231 174 186 185 168 177 145 92 84 85 100 106 136 144 172
188 161 164 190 167 222 258 257 254 248 241 210 171 142 194 283 322 381 411 404 392 361 347 314 296 270 255 229 210 201 172 150 154 143 117 104 99 101 115 138 152 175 198 211
161 191 222 246 255 298 303 302 309 324 290 288 295 269 260 335 341 376 388 394 374 346 311 280 241 235 224 199 188 160 149 132 122 103 100 104 126 145 166 181 200 217 243 242
182 182 230 169 173 251 312 323 311 336 292 267 292 326 317 334 371 398 400 339 314 295 254 263 264 254 230 221 209 184 154 131 120 105 102 110 125 139 168 188 183 197 206 200

GFSCGP_con_3kmhel_057.txt.gz
Helicity
24 1 -5 -19 -41 -27 16 44 46 113 134 61 39 1 19 70 90 103 106 113 81 60 -2 -31 -39 -38 -12 47 146 203 209 185 224 224 224 206 198 190 176 162 183 184 183 187
22 7 7 -32 -3 -0 -9 15 70 74 31 37 43 30 29 96 128 144 154 158 108 22 21 -3 -2 38 85 117 159 175 195 232 209 234 243 227 233 176 152 170 176 157 143 148
35 27 -27 -14 -4 61 35 17 47 55 34 4 13 28 29 34 120 56 110 181 139 134 112 82 88 149 183 176 191 179 189 217 232 235 265 269 280 224 198 200 188 125 140 136
15 2 -11 4 31 19 57 -6 -21 28 18 1 33 37 -0 126 124 128 139 156 164 170 117 140 170 185 225 235 229 195 196 217 202 223 244 278 231 206 182 195 152 152 134 141
5 -12 17 12 52 1 38 9 -7 17 63 31 26 23 -7 22 166 209 182 211 203 228 223 252 289 272 250 251 280 268 267 232 215 186 220 206 188 154 163 192 178 171 168 194
6 6 2 60 41 -25 -29 -1 38 29 38 2 6 -10 -20 51 193 173 218 255 215 281 266 240 295 292 339 297 283 333 299 282 222 218 206 227 146 144 168 198 211 195 227 243
32 25 26 12 33 40 11 57 60 50 55 -15 35 41 2 16 1 45 229 258 261 343 400 405 395 404 441 393 278 273 272 211 254 277 261 140 110 144 147 192 228 311 349 386
-13 -64 36 34 26 49 46 52 62 47 44 30 64 14 14 -0 28 29 59 118 194 301 413 482 465 424 446 342 289 282 251 213 257 269 159 115 131 176 184 249 347 426 545 636
-53 -21 20 42 51 54 43 53 48 99 93 72 48 51 47 48 35 25 36 108 120 157 266 373 371 364 380 317 246 269 225 224 235 157 154 175 192 254 327 406 476 614 619 677
50 -38 35 47 56 40 57 64 96 98 53 45 44 41 30 52 41 34 33 11 21 94 147 210 263 296 323 250 225 244 256 205 172 192 208 245 331 402 502 581 747 771 640 693
127 116 35 63 52 70 127 137 132 82 68 59 49 28 -5 23 56 48 32 15 30 54 88 99 149 215 253 238 223 199 207 204 230 276 348 400 513 663 741 715 775 747 445 406
46 122 107 76 74 58 110 112 107 124 57 80 89 42 38 -14 -6 25 3 25 27 47 70 86 107 144 192 206 208 218 193 265 320 416 536 617 650 767 758 638 605 390 354 301
84 102 169 135 118 125 60 74 79 107 116 88 118 63 73 63 48 50 21 7 68 65 67 87 127 166 216 244 271 275 386 515 589 648 679 759 604 698 504 478 346 370 303 263
188 142 140 104 37 45 92 63 62 110 141 119 118 55 74 80 81 68 40 60 60 123 136 157 178 213 253 330 420 483 544 606 635 649 751 645 646 543 441 382 306 376 336 158
160 110 138 110 73 86 77 71 88 140 131 149 70 102 67 68 53 55 79 96 92 94 168 199 217 243 299 434 492 486 541 549 608 650 593 550 490 453 437 478 481 370 347 264
208 149 160 159 153 132 93 79 114 138 167 154 114 107 92 115 146 203 173 174 170 172 138 136 189 273 354 441 486 537 545 569 597 601 543 564 517 468 417 384 442 375 292 178
177 202 191 106 165 154 130 100 107 112 128 153 168 119 137 237 304 290 241 267 232 236 201 155 168 250 333 378 424 471 528 588 582 546 559 495 455 477 489 487 468 442 187 88
208 247 222 117 161 117 63 140 125 161 176 162 190 240 248 295 331 353 275 185 174 139 155 184 189 235 267 330 403 483 515 567 591 595 569 538 525 578 534 617 265 104 103 119
212 279 228 174 155 145 114 129 148 143 115 113 158 216 206 185 226 242 236 201 172 173 179 208 243 279 335 384 443 552 590 581 577 574 636 607 489 445 265 155 112 141 143 153
287 256 192 180 183 109 66 135 131 163 158 138 138 134 139 175 163 89 136 160 188 204 212 235 272 338 415 416 484 562 526 530 512 451 394 413 335 122 141 133 160 141 148 130
325 314 234 257 175 130 117 147 163 217 96 260 193 141 133 109 91 145 183 202 217 234 259 269 307 351 352 371 400 403 384 411 446 306 174 126 158 154 153 141 149 146 129 127
269 285 233 244 222 138 169 250 223 124 185 174 201 194 187 206 216 236 206 232 275 302 318 335 375 372 340 331 341 345 309 192 167 146 142 171 161 137 141 149 134 130 135 145
245 205 209 179 146 208 116 101 132 149 149 122 184 155 186 218 201 209 241 280 317 343 351 331 357 373 361 334 198 268 219 172 164 183 166 145 148 158 150 153 142 158 159 182
218 223 257 235 196 199 184 184 187 195 201 191 180 173 185 241 251 293 324 365 392 369 374 340 359 370 319 234 287 310 271 207 167 166 173 170 162 147 131 130 140 162 177 191
150 273 304 295 255 257 217 201 239 282 277 295 292 224 259 328 311 355 397 412 411 403 392 381 340 308 300 275 273 238 214 185 184 169 156 141 120 111 102 108 122 143 164 198
151 278 278 223 229 228 182 229 251 302 286 268 317 344 306 325 363 409 436 413 419 417 374 364 323 292 250 240 240 225 202 164 140 127 108 95 91 90 95 105 103 110 130 139

GFSCGP_con_3kmhel_060.txt.gz
Helicity
12 -2 -0 36 11 -24 -50 -31 36 69 39 25 84 96 54 111 63 85 61 47 26 34 -7 -18 7 2 5 14 23 60 76 58 93 103 117 108 114 107 112 105 147 173 198 221
22 4 11 -3 -18 -13 -19 18 16 50 -0 13 38 15 37 130 118 139 139 73 51 -0 -39 -78 -46 10 54 88 59 74 89 143 138 157 161 136 154 124 134 148 169 197 218 183
40 24 16 50 21 45 35 14 36 22 -19 -16 -1 10 36 99 80 76 84 114 50 57 20 -44 -36 7 34 72 97 110 125 164 168 209 255 229 262 209 204 198 197 195 175 147
18 46 28 16 47 30 51 27 31 34 18 28 -17 25 14 45 120 83 118 89 71 57 21 3 49 6 29 25 52 99 150 179 201 254 281 283 291 282 209 172 175 185 144 165
9 55 37 -21 32 -5 17 38 21 10 46 53 33 41 -7 39 33 76 99 140 116 105 125 95 71 78 83 110 147 176 183 182 218 267 249 280 285 248 201 176 184 198 203 211
20 27 32 27 8 17 13 17 37 53 62 28 36 39 -21 35 6 42 67 100 137 137 118 114 109 140 151 168 191 240 274 210 218 239 252 285 277 217 202 180 206 237 248 267
-29 37 30 13 25 31 29 58 39 53 58 1 18 22 -23 11 -3 8 117 202 233 233 209 200 247 288 261 257 264 269 275 224 252 216 212 288 229 193 143 185 223 275 292 330
-4 -27 29 25 23 20 40 57 58 24 29 16 19 -2 3 6 -4 -4 8 72 147 217 270 268 306 385 413 345 329 330 279 235 298 223 192 264 161 143 143 177 232 311 384 391
26 -29 50 25 46 37 43 65 34 77 70 58 49 31 15 27 10 32 45 13 58 143 246 294 310 400 461 404 341 383 304 225 279 226 254 256 196 156 186 244 330 409 523 684
19 -20 75 62 50 52 51 35 63 72 37 14 14 20 9 36 58 87 92 49 29 22 73 126 179 295 360 336 285 269 278 244 252 273 286 214 176 172 244 346 432 489 576 651
103 44 49 123 105 75 89 102 109 100 112 88 18 -6 24 18 46 68 46 17 3 17 42 67 100 161 218 241 255 241 223 246 246 204 214 208 228 293 335 405 509 593 534 691
87 90 53 38 99 55 87 91 145 164 118 107 84 12 45 7 11 7 2 21 39 24 15 33 72 121 174 188 206 175 198 200 204 251 285 298 354 446 458 550 655 610 491 369
92 132 124 82 108 143 114 84 163 168 131 84 108 50 41 39 36 37 12 43 20 38 34 44 52 69 78 89 139 186 221 276 304 336 379 435 421 547 569 555 551 415 326 321
155 155 159 128 85 102 85 108 121 159 138 94 102 81 -6 3 37 37 40 35 57 60 59 61 96 125 132 147 200 255 311 329 382 440 472 509 628 706 690 376 378 344 355 486
128 134 152 114 96 98 74 82 144 179 140 115 65 132 34 51 52 50 55 46 72 64 71 73 103 148 159 243 276 287 339 384 418 494 540 547 601 554 242 445 563 414 169 206
169 141 170 141 147 133 107 77 101 94 88 81 108 124 126 158 118 115 117 142 165 162 127 94 108 147 197 224 268 298 308 341 375 431 516 516 427 329 403 424 284 172 286 245
195 229 225 165 209 196 117 107 145 157 201 202 209 174 181 197 224 224 233 261 265 229 172 166 173 167 187 233 248 315 379 421 439 425 435 427 406 370 365 429 328 409 396 110
178 230 247 180 243 187 137 170 132 148 143 183 184 184 186 249 306 326 287 201 195 168 153 142 122 148 192 227 280 322 355 395 421 432 429 391 455 439 391 554 389 185 115 120
186 235 223 213 204 186 137 128 125 124 75 138 150 177 208 200 213 230 202 185 154 127 110 124 149 189 238 272 297 368 378 398 440 469 466 408 403 501 335 148 106 95 122 139
234 233 209 239 232 168 80 91 138 152 108 143 174 172 189 162 167 116 130 132 149 150 152 179 212 246 280 261 291 355 375 430 405 370 386 345 248 105 76 73 115 139 138 141
282 309 263 304 227 188 113 155 186 198 147 169 227 189 175 146 132 156 159 190 173 172 194 230 255 268 244 252 320 383 380 370 293 267 175 105 86 97 126 129 128 129 138 145
272 269 282 314 269 175 188 279 221 123 134 161 195 194 219 195 191 209 207 194 199 238 271 289 332 325 301 315 335 328 319 231 134 145 189 170 165 163 148 143 135 133 134 139
230 217 215 199 165 195 153 166 176 156 149 154 216 187 227 235 204 202 215 229 251 278 327 336 373 424 425 411 359 326 241 156 190 212 202 184 168 153 143 129 124 127 134 143
194 205 207 207 199 182 160 144 166 177 171 196 186 213 226 243 235 255 253 270 306 328 358 367 408 408 390 355 326 228 209 227 207 200 185 159 142 129 119 115 116 124 132 141
192 221 226 220 191 129 141 197 195 243 250 283 292 243 246 279 257 271 286 326 356 393 406 390 380 361 343 278 243 225 227 192 180 161 142 125 103 94 86 79 76 88 99 118
210 223 251 312 234 189 176 234 230 287 282 258 315 321 286 278 301 335 377 397 424 436 412 421 382 331 283 251 244 221 189 159 145 134 110 88 71 59 57 57 61 75 94 118

GFSCGP_con_3kmhel_063.txt.gz
Helicity
-7 13 21 8 4 35 39 -2 24 12 -74 8 50 140 78 83 82 40 47 45 72 60 22 10 27 35 41 42 41 54 35 16 41 35 27 17 25 31 37 47 63 74 100 125
-9 36 12 -9 4 2 19 7 22 8 1 -7 36 67 28 111 127 98 51 56 55 43 18 3 -3 -7 3 41 57 25 14 38 44 36 51 48 59 51 60 75 91 77 123 151
21 32 52 35 10 5 5 21 -1 33 14 10 26 23 15 48 33 34 52 40 15 43 41 25 14 11 5 24 53 34 28 43 55 53 97 123 136 104 108 121 103 102 129 154
-16 -11 36 84 -16 3 19 18 16 10 -8 -12 -9 13 -40 44 110 71 43 42 20 27 18 25 44 17 16 -10 2 26 39 64 82 107 122 154 143 163 149 146 132 137 149 172
5 25 38 -2 -19 -6 14 11 18 52 4 22 17 7 -22 28 40 125 129 69 53 45 31 37 54 52 39 31 50 54 62 83 100 116 124 134 132 157 194 178 204 194 179 204
-6 -2 10 35 16 24 22 33 53 56 44 25 36 25 22 20 18 1 32 100 77 38 41 21 20 40 48 61 63 75 78 93 127 131 164 138 134 176 218 194 241 209 203 244
16 4 -6 29 63 42 64 50 47 49 39 28 49 32 -1 1 -10 7 26 23 59 60 33 30 46 81 106 112 113 114 115 130 177 193 194 170 164 195 212 183 236 223 238 283
21 -7 27 23 71 42 42 42 73 61 36 33 38 18 16 0 19 6 10 32 -19 10 18 44 70 107 163 187 148 144 188 156 156 222 222 230 231 215 209 202 182 192 249 261
92 -9 25 1 43 50 53 88 52 85 58 20 26 24 3 7 10 20 41 40 35 -1 15 25 26 102 147 218 261 230 216 190 179 205 251 242 202 201 193 158 104 159 231 330
51 83 34 50 64 80 60 49 118 104 49 29 36 28 14 34 43 53 42 40 37 31 26 25 37 72 93 135 189 200 183 189 216 198 219 239 225 216 230 158 126 187 304 439
88 80 76 82 62 54 101 97 132 115 100 62 40 55 21 12 28 16 1 -29 -21 -25 -2 33 55 55 66 102 123 130 136 124 154 168 217 216 175 194 195 172 206 244 379 512
85 101 90 80 90 78 97 108 124 90 102 117 103 101 47 11 34 22 -7 -5 -5 -26 -15 21 26 43 54 44 72 95 104 104 100 117 155 146 160 184 232 263 277 333 362 450
142 109 86 100 125 136 126 69 107 139 150 141 141 104 46 46 42 27 30 4 18 32 32 24 15 14 20 32 49 61 83 88 121 152 195 218 246 252 296 315 372 393 263 309
218 150 88 54 77 101 114 117 127 139 106 125 151 68 43 33 38 8 21 34 38 34 48 53 58 61 46 36 42 73 122 139 175 202 231 263 295 316 324 347 270 291 235 361
131 110 103 73 87 133 106 96 114 100 109 133 81 128 46 53 84 72 50 53 46 47 69 88 87 98 100 111 131 159 182 191 213 252 238 217 199 240 294 345 371 244 317 280
139 109 139 82 122 96 108 64 88 86 112 96 94 39 79 130 136 129 126 120 116 121 141 170 144 145 136 135 151 174 196 218 203 194 211 254 278 274 310 259 344 248 372 252
101 189 181 115 152 168 145 120 156 152 155 158 166 67 134 121 143 183 204 218 245 241 245 223 206 167 158 170 169 189 212 215 220 218 226 279 312 339 356 354 282 320 196 112
126 176 184 155 226 167 135 159 139 132 113 151 154 127 78 131 222 231 207 188 205 195 193 184 161 162 152 142 171 199 209 225 242 276 305 325 335 343 316 326 190 177 81 51
152 174 167 160 166 175 152 145 159 168 72 135 122 111 139 205 209 188 175 158 142 130 137 136 126 128 142 155 164 214 240 276 321 326 331 307 263 200 174 136 96 61 55 77
210 176 157 165 149 157 145 150 178 197 24 103 170 154 191 197 180 152 140 150 162 153 138 129 127 125 165 179 201 255 271 310 299 256 251 208 144 121 101 85 98 106 99 92
265 228 167 216 150 161 157 229 229 160 131 65 103 181 238 192 157 199 193 196 178 160 148 142 175 231 240 221 250 297 295 294 251 225 194 160 135 128 157 142 116 109 117 113
241 225 219 240 198 145 200 317 227 210 149 98 141 209 272 226 218 238 214 200 184 188 190 230 299 303 274 259 302 337 351 250 220 191 152 144 183 175 139 147 136 127 124 118
147 168 179 193 192 198 113 176 231 186 133 114 178 231 348 276 211 197 213 202 186 206 253 291 356 403 378 333 281 293 244 208 194 175 174 205 186 158 146 138 129 120 128 127
212 181 203 159 131 153 152 145 186 175 136 141 208 308 299 273 221 228 216 224 248 252 305 320 364 380 381 323 295 265 234 177 170 179 205 163 155 145 139 121 119 117 121 121
206 243 230 212 131 147 99 111 157 173 173 222 256 265 278 298 259 265 271 271 299 310 327 336 353 356 334 308 308 270 216 171 195 178 163 156 137 128 115 104 97 94 101 101
226 195 214 190 95 142 146 172 333 196 201 229 322 326 255 288 322 315 331 337 353 363 361 378 364 354 318 302 294 251 218 198 163 161 147 133 110 96 85 87 92 94 73 88

GFSCGP_con_3kmhel_066.txt.gz
Helicity
5 10 40 9 -1 -70 -25 -10 -2 7 27 33 20 58 23 23 9 40 44 38 20 17 26 24 20 22 72 66 45 43 37 25 -18 -36 -28 -17 -8 -0 7 24 29 46 48 65
9 17 -12 -1 3 -3 4 28 16 -7 -3 29 37 28 35 12 14 34 54 45 48 58 43 29 26 28 43 56 58 51 37 8 -8 -12 -5 -2 -2 9 18 35 39 51 73 75
2 28 -0 17 41 17 14 16 9 27 36 6 40 18 20 24 19 9 18 20 39 53 63 58 49 31 11 14 32 22 13 -0 2 -4 7 16 17 25 31 52 65 69 84 80
-13 5 17 18 22 4 3 -20 28 21 17 4 12 10 19 5 29 34 27 39 21 16 9 18 36 44 34 12 2 16 3 1 6 22 30 41 52 39 43 55 65 90 103 109
37 41 31 29 33 2 26 29 -15 -8 6 22 32 8 66 7 4 38 36 37 26 30 37 28 45 40 34 13 12 11 17 24 31 51 50 60 52 53 77 79 87 111 138 162
-3 49 13 9 21 -4 40 29 32 22 21 11 51 10 22 27 35 13 10 16 21 23 28 33 20 8 20 29 29 39 47 53 62 75 75 77 86 103 136 98 139 203 210 192
40 32 9 12 18 1 12 16 45 48 32 12 35 -4 -25 20 14 27 38 37 -19 -5 9 -0 3 23 23 43 51 53 63 76 81 95 94 79 74 95 103 94 163 200 206 220
57 92 35 31 -7 -3 10 12 104 83 77 62 49 31 40 43 28 16 8 8 13 19 -5 4 -2 17 35 70 72 89 95 98 123 122 104 126 110 80 147 182 191 236 240 225
43 39 84 30 18 4 43 39 71 97 106 79 50 39 14 34 23 27 34 26 26 15 31 4 4 20 39 68 96 124 104 101 123 120 144 111 102 147 152 161 184 253 203 156
58 20 58 66 46 49 13 64 53 50 22 60 58 42 25 60 35 41 52 77 56 40 29 23 15 18 26 24 34 72 88 104 119 127 151 166 184 120 127 141 147 220 163 120
51 67 85 85 70 65 94 64 62 62 69 23 35 45 33 39 39 38 27 18 25 22 10 16 40 53 54 54 53 36 42 61 88 100 103 123 142 141 121 170 137 212 211 143
94 74 64 54 112 50 26 17 35 66 76 75 75 51 43 34 28 35 30 25 15 22 27 29 38 47 70 64 72 72 75 87 90 100 105 127 120 167 232 214 244 234 312 430
139 107 83 59 62 93 95 49 54 71 85 70 55 66 54 49 22 12 14 39 35 24 33 55 60 62 60 46 50 57 69 86 107 145 196 230 233 250 255 272 331 377 326 233
145 90 57 39 25 43 56 99 90 74 89 55 74 19 27 22 20 19 45 48 41 50 55 65 79 75 82 91 104 109 127 167 183 183 199 210 212 216 212 217 240 222 235 244
98 87 45 22 21 16 14 16 38 52 34 43 44 18 22 8 21 23 89 90 69 53 66 76 94 138 151 152 161 167 184 205 214 213 206 211 221 215 234 286 309 315 276 144
127 99 78 48 43 28 22 10 9 39 16 38 16 -0 21 15 44 69 101 112 132 120 87 83 121 182 217 216 232 211 216 210 236 271 293 295 272 266 269 285 304 272 206 160
162 147 133 71 63 71 58 17 48 61 68 49 15 10 24 27 25 71 111 144 179 175 157 174 194 205 227 227 201 215 224 222 262 269 276 254 241 252 232 254 238 166 170 124
159 136 138 115 94 105 6 84 48 44 42 38 32 40 49 32 106 124 131 154 192 212 220 215 214 211 198 184 187 177 178 202 226 246 229 213 224 242 219 163 114 108 90 100
131 149 187 176 116 112 86 97 117 121 37 51 55 50 30 124 106 105 138 176 208 213 196 181 165 152 145 146 152 191 231 242 247 233 224 213 199 171 144 102 109 83 66 92
169 163 187 216 191 151 84 84 102 115 66 57 56 25 66 148 102 109 177 200 210 199 181 165 155 151 154 160 171 203 205 197 202 201 204 169 171 149 113 88 91 107 123 118
221 203 170 186 195 160 118 146 167 115 91 52 50 42 86 96 141 225 242 247 223 200 181 163 158 164 173 183 192 212 198 201 180 185 193 185 160 154 129 117 144 139 120 117
168 185 223 213 196 172 155 215 176 120 87 69 72 69 81 207 235 230 268 253 222 195 173 172 181 184 197 195 205 221 231 213 215 201 193 187 157 145 165 160 139 132 135 130
139 203 206 167 161 185 82 60 66 101 79 96 106 105 154 245 255 252 272 247 221 207 196 196 224 254 254 243 231 249 229 209 210 215 200 180 184 183 158 160 155 145 139 141
109 135 170 107 109 84 69 50 104 87 102 139 140 132 190 227 290 283 254 250 248 231 234 239 270 315 336 321 298 252 221 203 212 236 224 210 222 173 163 142 140 147 147 139
103 107 101 99 81 70 60 71 69 96 113 128 165 183 152 251 292 284 267 256 256 272 262 275 319 347 363 327 300 266 248 245 260 235 224 202 174 164 148 147 153 148 161 153
153 120 162 162 99 121 49 125 83 77 123 175 259 174 188 238 318 301 275 277 298 320 348 377 373 373 383 378 366 344 314 278 243 226 196 177 156 145 144 144 115 123 143 153

GFSCGP_con_3kmhel_069.txt.gz
Helicity
43 19 19 13 39 -19 -12 -10 9 21 47 8 7 47 51 45 28 37 55 49 75 50 -13 61 44 29 33 25 41 32 42 22 -6 -22 -29 -34 -28 -27 -24 20 36 44 39 39
23 22 -19 -6 -19 -14 -5 12 15 -3 33 16 20 -7 42 95 29 45 48 56 74 37 113 59 63 105 76 74 23 16 5 6 -15 -20 -24 -28 -15 1 5 51 35 37 49 57
10 7 4 17 13 -4 12 8 3 -3 5 2 15 10 40 54 63 32 55 49 76 91 69 99 91 64 69 44 32 1 1 -6 -13 -24 -18 -14 -7 1 17 58 65 63 60 64
18 -36 31 20 -10 3 -5 21 -13 18 41 -31 35 28 32 61 68 75 58 84 72 81 54 48 59 60 41 16 8 10 0 -7 2 -24 11 12 19 32 35 75 59 52 57 79
20 8 44 6 3 -4 -7 70 -1 11 12 41 -3 21 56 23 50 76 74 63 69 54 65 56 77 56 47 31 17 17 7 3 22 44 8 42 29 48 56 117 93 112 99 82
-23 39 13 8 -5 -27 10 4 0 9 27 -4 54 7 93 34 -28 32 44 64 36 36 56 31 53 54 53 39 36 29 30 36 38 73 61 52 65 43 62 159 164 147 146 147
5 60 19 1 13 8 1 -9 3 21 33 -4 77 18 2 27 49 33 -9 23 22 22 65 66 37 45 31 57 61 50 53 52 79 81 86 76 78 68 65 138 114 219 183 193
50 49 27 51 -17 31 19 -2 -14 -4 20 1 119 23 30 47 28 19 31 14 26 25 46 69 62 74 48 43 69 65 67 68 89 96 91 78 71 92 108 67 96 167 171 166
51 12 55 35 10 -44 21 -8 -27 -75 -38 -10 4 40 29 41 44 41 42 30 38 30 10 50 42 48 75 69 100 114 78 73 67 124 93 80 104 114 168 144 144 183 208 259
58 30 52 78 19 -5 -35 7 14 -16 -6 5 17 26 1 53 32 38 18 35 47 49 27 30 43 38 32 72 79 118 68 74 96 133 122 89 125 154 182 193 168 178 186 187
11 75 84 106 40 36 48 28 0 -11 -3 -3 -15 -14 84 36 29 19 24 23 25 43 28 27 30 43 70 80 97 128 81 78 109 128 159 159 162 206 216 234 213 147 204 242
17 74 69 55 13 -14 41 50 18 3 -12 47 2 -68 37 25 5 61 20 32 22 42 45 44 31 39 58 71 93 118 111 76 91 115 181 167 167 229 209 274 312 375 391 450
29 96 89 36 66 88 47 -21 -2 27 -3 -8 71 44 28 33 52 16 21 13 37 37 32 52 61 71 64 75 88 84 102 95 122 161 362 392 321 307 310 320 321 323 336 367
50 97 75 71 32 45 26 9 -5 1 62 42 13 -6 -8 19 48 30 24 48 23 41 35 30 61 77 80 89 87 116 206 278 342 340 306 287 254 259 269 290 302 328 300 292
45 54 68 33 10 14 19 32 11 20 8 19 15 0 -9 9 4 11 58 58 91 70 63 74 75 137 138 170 182 243 250 260 269 293 286 282 295 300 304 314 339 326 303 269
44 88 47 54 27 27 38 23 10 2 19 7 11 17 -13 -23 18 39 35 65 65 125 116 96 87 168 203 248 310 261 280 296 312 346 322 297 299 307 324 315 294 283 264 217
85 81 63 76 34 34 62 -7 2 10 3 23 4 4 -1 12 10 17 30 97 86 120 136 124 143 181 192 240 314 277 257 270 283 278 279 282 300 294 285 279 258 218 232 212
133 101 92 136 159 105 97 23 6 14 -1 12 21 15 4 15 19 110 110 113 137 154 192 218 239 234 210 233 257 213 189 178 187 194 221 218 236 255 239 226 221 221 173 126
176 147 162 188 122 91 55 89 79 39 24 12 12 8 18 32 118 60 106 116 185 184 205 219 219 209 190 173 153 143 132 145 173 198 217 221 217 232 221 193 167 160 127 123
127 144 148 176 115 71 81 51 39 28 50 8 9 26 39 89 69 56 204 210 218 198 216 208 187 166 151 146 143 151 175 207 215 215 214 210 204 202 181 142 130 155 155 167
188 149 159 146 153 103 42 40 111 57 60 -3 29 43 54 79 75 167 208 181 183 216 231 213 184 167 167 158 168 205 212 234 225 217 202 190 161 190 212 195 162 159 177 187
154 193 182 149 143 128 121 175 137 87 3 38 34 40 57 160 186 186 201 223 264 269 249 220 217 211 192 189 201 230 262 241 216 216 212 208 227 205 184 174 178 180 174 171
78 265 152 140 133 133 102 90 60 65 67 45 47 50 86 206 182 181 206 244 277 270 263 243 249 242 220 219 234 291 293 229 213 223 241 246 224 202 189 207 210 185 178 174
26 12 87 113 135 88 54 40 44 75 60 59 77 68 89 162 185 231 244 271 307 306 286 274 276 275 284 288 308 286 272 256 253 255 244 235 213 229 215 178 186 194 186 179
75 49 51 52 46 54 75 87 49 19 28 56 84 69 85 170 212 219 233 279 306 315 309 300 320 336 344 347 349 332 315 283 274 276 272 263 254 240 219 220 219 185 221 208
102 84 87 76 23 48 51 127 161 88 81 83 83 85 160 189 230 229 258 291 317 330 310 337 362 369 376 390 393 366 330 296 300 310 303 287 242 225 197 179 144 184 207 171

GFSCGP_con_3kmhel_072.txt.gz
Helicity
31 39 41 -1 43 78 -2 -32 21 66 52 45 9 -3 121 29 46 116 111 121 181 135 201 90 74 56 -13 -89 -75 -47 -18 3 -9 -33 -41 -37 -7 -22 -40 3 28 42 34 64
11 74 -6 15 -3 -29 -31 -53 21 -7 38 45 3 80 19 105 108 90 110 66 181 181 177 134 195 167 50 1 10 14 29 40 2 -17 -23 6 6 -4 -6 8 72 67 63 72
29 11 65 -23 4 -4 -1 6 7 -1 3 24 26 35 23 69 99 72 143 124 168 140 167 164 190 230 181 79 6 1 79 67 34 -0 -23 -2 1 -4 3 118 107 88 61 78
18 -44 -3 1 14 1 4 11 2 -31 3 3 28 38 52 10 46 72 93 208 170 65 222 114 197 183 190 118 18 17 38 134 46 -10 35 58 40 35 61 126 119 100 121 85
4 -17 -44 37 3 -10 -17 46 55 11 18 26 74 4 70 46 27 91 55 174 205 197 58 231 165 165 125 80 58 -11 -30 9 48 51 -11 128 65 43 30 69 210 150 141 105
-4 -4 14 -22 24 -10 -16 -11 -32 -4 28 12 42 44 101 -4 -26 86 89 85 153 309 120 93 197 152 96 97 53 101 47 11 3 164 65 102 106 46 54 181 200 192 178 234
20 -18 5 10 12 8 -8 -9 -12 -2 -5 28 20 -26 61 50 -4 13 12 105 81 153 182 183 188 188 158 130 114 104 120 51 27 195 158 128 126 112 77 123 267 213 236 248
88 65 -40 80 13 18 6 -4 2 8 -8 -22 47 -11 11 36 82 52 36 -0 36 43 117 163 158 250 184 175 196 170 153 109 76 141 211 184 120 147 106 87 260 277 333 297
94 23 16 47 48 -83 41 -16 -4 10 -10 -46 -0 23 63 73 58 56 9 15 23 50 19 58 165 162 244 261 257 240 172 135 88 151 201 182 182 141 144 151 240 260 274 276
25 55 -21 76 76 -36 -79 12 -2 -34 11 -1 -18 -4 39 62 18 59 6 38 57 49 27 5 25 145 189 238 323 264 205 140 126 114 204 196 197 170 156 255 248 285 334 328
-35 52 33 14 121 38 33 11 43 -7 26 9 9 33 17 80 7 36 15 76 42 45 36 29 28 25 155 185 250 305 287 188 122 139 211 247 238 246 314 345 245 329 353 366
12 32 55 69 81 50 -0 38 42 59 18 52 97 -39 14 14 26 27 61 41 64 50 53 53 28 37 48 67 139 240 241 267 165 156 265 302 330 343 331 387 411 411 429 372
62 54 92 52 82 63 32 -72 65 8 28 18 11 52 8 14 74 61 51 17 8 103 52 101 74 64 61 93 148 181 195 210 156 159 298 436 584 549 526 416 380 366 385 392
70 79 68 104 96 88 56 4 -3 38 59 23 -5 25 19 -19 90 87 100 116 -2 52 54 40 124 120 84 91 100 195 364 414 422 414 555 601 502 423 389 346 351 347 364 415
101 101 80 67 43 25 35 22 42 -9 4 44 45 20 -23 -10 50 48 14 44 122 18 50 22 45 180 212 250 386 401 459 432 391 410 448 437 432 418 348 329 327 387 371 375
74 176 84 47 38 31 34 36 56 56 -0 -4 25 -13 -5 3 -13 71 47 52 61 69 143 150 108 196 311 484 351 341 411 383 358 380 376 385 354 355 334 360 371 378 374 361
64 150 60 76 64 54 47 -7 45 51 33 22 23 41 26 21 11 28 68 65 68 167 166 125 157 355 471 407 371 324 342 358 383 371 346 339 336 300 298 321 352 351 331 300
187 128 101 78 120 51 55 55 58 61 61 42 29 31 40 32 26 69 136 107 140 201 228 179 293 344 471 437 395 314 281 289 301 308 310 295 285 296 294 314 306 274 231 196
195 221 128 160 104 123 84 93 98 120 73 26 17 13 21 24 135 107 90 98 129 264 243 243 292 321 360 340 267 220 194 192 213 226 224 226 263 292 279 273 231 180 163 164
100 206 148 167 172 95 126 73 67 69 82 29 19 34 18 49 89 102 130 128 235 257 194 218 264 301 272 187 134 129 142 166 195 214 225 249 254 252 235 208 181 168 157 194
129 170 113 151 173 152 106 73 85 86 105 -2 13 7 34 61 123 183 187 193 200 207 222 244 238 244 254 240 229 238 270 239 224 240 241 215 186 183 177 187 228 236 286 322
132 191 185 126 156 110 135 102 50 90 114 29 47 63 106 104 141 170 198 183 187 220 269 287 297 302 268 230 256 258 238 241 247 240 245 216 248 284 279 280 274 263 272 277
67 145 231 184 167 158 87 103 59 169 125 81 124 96 63 161 172 176 196 171 211 255 293 297 341 347 261 240 216 290 290 268 284 290 330 330 287 295 283 296 254 256 263 250
3 55 116 273 229 142 89 127 164 136 137 126 104 96 85 172 186 175 178 220 267 306 301 380 388 327 320 281 336 410 396 320 324 359 354 335 322 314 297 280 268 303 289 267
70 54 -20 78 92 89 155 125 86 39 97 100 83 81 83 150 191 182 208 257 310 296 365 396 355 384 398 475 524 450 383 372 418 423 394 393 335 326 355 389 355 272 267 243
72 66 89 106 57 52 36 113 145 122 68 27 45 93 98 119 166 172 192 259 343 385 376 437 466 534 596 573 522 488 463 492 493 521 531 448 421 403 329 234 219 241 156 154

GFSCGP_con_3kmhel_075.txt.gz
Helicity
-9 58 78 3 -2 35 76 40 16 -40 73 67 84 91 70 99 122 145 118 234 210 183 74 63 12 -43 -44 -55 -157 -165 -162 -128 -123 -157 -144 -158 -170 -125 -78 -42 2 -14 -32 18
7 75 62 17 -21 4 73 15 -5 -24 39 49 48 -17 87 143 126 64 167 162 262 253 196 80 66 -2 -48 -101 -94 -89 -67 -66 -87 -108 -117 -91 -81 -66 -31 -14 10 52 58 36
85 14 64 13 10 20 27 3 -34 -18 -11 43 52 -31 21 62 150 168 195 228 373 353 277 175 129 103 5 -57 -61 -44 -33 -35 -32 -27 -64 -66 -61 -60 -70 -48 4 49 98 104
56 21 -30 25 18 16 -13 -19 37 41 24 -53 38 31 16 33 98 79 198 331 393 356 292 304 179 149 99 -1 -7 11 -0 8 10 9 -10 5 -3 15 8 6 35 99 115 117
106 40 24 -31 -34 64 -9 -56 14 33 7 6 13 54 8 28 236 122 227 351 366 345 379 338 312 220 166 75 37 33 13 -7 5 10 31 2 41 74 63 85 145 160 136 153
16 -1 -37 -20 -2 44 32 2 20 -6 -70 -35 50 81 -3 105 203 114 229 311 315 329 323 319 308 269 215 121 54 22 9 39 51 41 59 90 109 124 88 141 189 192 170 156
-64 -34 3 -9 44 28 93 83 42 9 22 -5 19 57 103 128 2 -28 212 258 272 292 322 294 292 306 223 160 80 40 23 41 132 91 101 142 250 189 141 142 225 267 243 222
106 106 1 -4 49 81 93 114 88 35 53 41 31 -26 8 24 -37 30 56 189 206 238 271 313 355 333 271 228 179 84 56 47 92 171 204 204 255 222 192 198 258 324 299 284
179 134 91 10 69 136 82 93 57 45 52 17 -3 21 69 21 25 45 90 58 168 209 231 289 313 350 325 289 244 202 190 129 98 146 184 202 243 229 183 169 253 286 331 279
135 155 45 22 85 109 67 45 62 38 18 33 37 19 39 19 17 37 70 82 98 92 103 141 245 306 335 339 354 291 286 273 261 180 200 225 218 207 256 213 267 322 293 327
34 134 168 19 94 148 101 51 55 27 80 72 47 27 -12 24 18 35 38 67 99 128 70 64 91 209 331 340 350 338 297 264 212 197 185 261 305 281 235 295 405 351 316 425
141 207 86 102 102 187 160 137 93 126 69 82 112 37 23 -11 22 17 46 66 78 86 85 75 43 97 186 266 220 342 338 379 210 103 167 173 316 473 356 235 322 402 399 388
314 243 130 98 75 111 200 169 127 114 94 66 61 26 23 20 34 103 88 73 51 69 109 121 123 41 106 46 158 272 353 455 180 98 172 381 410 397 408 442 449 477 426 380
296 193 128 199 189 95 193 154 89 116 159 86 83 71 9 -17 22 59 125 120 106 105 97 108 153 110 91 166 182 296 433 371 376 329 422 430 439 491 443 416 418 350 348 338
209 114 103 87 70 74 90 113 55 72 75 95 13 9 42 21 27 46 99 148 110 22 45 2 129 215 310 325 344 440 536 526 473 482 469 472 501 518 415 410 394 367 367 377
251 66 113 117 66 72 48 55 77 25 60 106 83 65 56 51 27 68 83 149 85 46 108 155 167 295 350 383 417 445 418 388 408 416 418 434 464 463 411 389 355 383 398 408
169 191 160 183 166 92 36 57 50 72 41 66 86 74 61 50 58 58 46 114 123 153 156 227 216 280 382 487 492 450 416 361 373 391 358 349 367 385 380 377 373 356 371 340
200 277 204 144 151 138 80 53 56 64 37 59 109 104 85 54 63 86 90 139 189 196 190 287 361 445 464 514 509 459 407 400 385 400 385 343 338 329 317 337 330 286 289 305
131 230 215 203 186 178 159 103 98 96 21 25 62 103 96 61 105 154 157 166 129 172 244 335 340 396 409 429 397 369 346 331 364 346 317 293 291 294 270 245 249 281 299 255
154 235 243 274 222 155 76 148 86 62 96 102 73 72 108 86 93 105 164 188 194 232 294 352 325 349 346 316 300 293 285 314 280 235 207 205 213 230 242 273 266 236 215 238
154 178 241 238 243 276 72 39 68 127 98 75 75 70 56 52 56 100 183 176 187 225 279 333 327 326 297 270 270 297 292 241 214 219 224 240 254 277 274 243 217 260 333 385
120 111 121 181 207 181 185 132 147 71 50 58 87 53 69 61 97 134 153 170 192 258 292 317 355 381 339 288 271 276 267 258 268 262 266 253 263 269 263 291 349 357 369 378
55 69 130 145 166 241 156 55 156 94 114 115 119 104 29 77 99 122 119 153 198 249 304 336 402 439 443 441 408 377 320 295 253 258 301 345 393 392 383 398 403 393 360 342
141 175 126 84 124 214 178 261 283 253 69 123 110 96 41 85 132 155 160 192 252 285 349 395 458 447 411 391 406 387 354 338 364 411 489 525 526 524 532 503 447 413 377 366
152 149 107 48 55 173 114 100 217 261 338 199 64 125 139 111 123 169 193 234 292 321 389 459 479 524 545 582 576 472 431 456 507 565 580 593 552 561 570 499 400 380 355 263
80 89 108 51 -22 23 70 86 73 7 151 182 103 150 104 71 102 180 219 281 324 405 486 659 745 779 820 937 939 838 670 650 672 707 660 601 560 492 440 446 486 396 257 264

GFSCGP_con_3kmhel_078.txt.gz
Helicity
111 124 147 55 35 3 8 -32 43 97 124 102 85 94 110 219 117 235 187 155 171 113 31 48 67 41 13 -4 5 34 64 41 58 109 173 142 98 74 3 -91 -133 -60 -95 -80
79 52 102 23 -1 -17 -22 -8 77 102 -2 85 40 49 71 228 138 265 264 223 175 145 113 79 58 43 18 -4 -45 -78 -88 -48 -28 15 4 30 -36 -41 -96 -165 -239 -188 -158 -141
127 57 122 48 8 -0 -26 26 125 37 -47 -1 50 37 23 98 71 118 202 188 182 247 171 111 66 29 5 -32 -95 -67 -63 -40 -52 -53 -65 -111 -120 -119 -191 -250 -269 -203 -133 -69
134 -24 -9 70 31 -4 -12 24 20 -2 11 -55 36 -64 -12 78 139 211 140 189 196 237 160 110 80 56 10 -61 -91 -77 -67 -75 -100 -115 -121 -92 -96 -100 -126 -133 -155 -114 -26 9
228 97 35 13 21 24 13 91 -12 26 -4 -54 -37 -12 -24 33 156 287 252 176 231 273 254 151 118 75 7 5 -25 -44 -28 -38 -43 -47 -48 -38 -25 -39 -53 -52 -14 5 19 45
104 86 71 32 12 13 36 43 55 60 23 -38 32 41 -40 -36 98 319 256 292 277 288 266 172 104 94 49 20 30 -4 6 -10 -12 -6 -1 7 19 -7 -21 5 28 41 64 77
140 6 58 44 55 21 44 96 62 -18 34 -28 34 14 96 5 19 230 322 339 321 318 275 201 162 155 132 136 109 64 47 22 9 -9 -30 -31 -16 1 43 30 48 59 61 85
229 110 66 21 27 65 93 107 116 38 5 18 35 13 -18 13 -0 31 138 380 394 342 280 257 279 222 191 209 175 139 104 39 50 51 19 3 15 11 62 99 155 173 179 175
140 145 94 42 59 78 71 168 132 141 64 49 61 11 31 63 83 -5 -0 113 297 371 286 264 260 309 234 213 207 226 165 120 72 96 71 73 73 79 116 165 247 273 279 220
153 137 72 109 90 63 119 118 176 173 83 33 28 66 68 28 50 54 36 20 106 233 295 292 261 268 308 248 185 138 113 179 156 106 76 103 157 175 180 256 288 223 258 292
91 108 137 105 93 128 167 179 163 119 149 72 52 83 8 1 45 66 46 37 50 122 180 259 304 345 344 369 319 229 157 151 149 168 177 188 245 273 328 369 329 315 321 349
160 110 89 61 174 110 97 132 137 171 167 122 86 41 36 18 23 22 22 50 97 53 39 69 105 213 296 327 367 357 286 231 198 187 224 314 279 322 370 417 355 506 527 116
91 153 159 63 58 102 174 99 162 202 188 137 116 49 78 53 113 21 44 55 53 68 87 164 94 33 76 177 284 348 374 345 196 232 260 288 358 363 350 326 426 344 349 297
61 197 150 143 146 255 280 138 75 146 209 157 134 101 84 76 43 42 18 114 112 98 93 80 178 131 93 75 140 298 338 325 320 299 322 276 304 338 430 464 504 475 477 521
53 170 223 122 117 214 256 399 92 147 190 184 113 114 80 81 54 34 36 91 118 143 160 88 130 166 258 238 215 286 411 434 433 407 328 277 311 349 410 457 449 438 430 407
260 132 177 138 109 130 174 295 148 116 173 121 115 112 95 42 46 84 59 61 120 147 185 155 181 257 290 276 306 345 374 448 459 414 372 373 416 450 458 422 384 403 410 399
86 233 126 104 52 97 107 115 140 82 84 105 130 90 72 70 51 50 47 91 108 98 174 164 162 285 351 393 399 419 443 441 418 414 369 376 396 429 416 395 366 360 354 354
178 227 116 75 93 93 128 65 70 88 93 86 74 30 -3 55 70 80 73 95 75 145 189 187 245 362 436 477 484 498 473 449 414 368 343 351 353 384 359 338 333 335 322 346
-30 221 182 156 99 80 158 173 110 127 107 55 76 53 48 91 141 159 101 105 133 205 165 190 239 335 423 436 408 417 394 371 333 302 309 320 327 343 310 292 286 280 302 325
10 57 79 104 99 33 -80 81 128 71 107 67 114 62 60 97 133 127 103 123 187 200 194 196 229 294 342 314 352 377 349 312 289 252 246 263 245 250 234 240 249 275 322 353
97 166 215 265 126 115 102 145 137 150 139 90 91 110 69 77 79 97 149 168 182 179 207 251 266 287 261 275 306 326 294 259 217 222 229 219 211 217 234 271 296 352 372 368
29 64 203 175 140 67 123 69 149 131 137 93 102 79 81 72 61 82 165 180 217 251 219 229 284 267 237 260 301 284 262 244 241 226 221 231 245 266 301 349 362 352 385 408
27 88 63 65 30 48 125 65 191 335 200 207 168 114 76 114 93 106 136 194 224 245 248 246 284 288 258 258 253 302 281 253 240 251 288 328 368 381 371 372 390 410 384 391
-11 93 92 128 70 23 52 97 69 150 217 91 187 82 140 138 140 185 232 233 254 243 278 282 297 306 314 298 328 338 313 321 323 358 433 471 494 533 516 485 436 429 404 419
38 55 70 87 53 50 26 38 64 74 111 95 116 140 121 133 120 151 189 231 250 284 323 391 432 505 536 493 515 490 446 446 471 482 506 529 527 527 578 604 547 500 490 440
64 47 83 65 55 83 14 7 151 184 183 88 126 151 133 63 68 174 191 244 296 381 470 625 649 692 703 770 750 668 585 612 615 575 546 536 544 556 543 507 507 586 610 552

GFSCGP_con_3kmhel_081.txt.gz
Helicity
191 190 215 214 158 119 77 124 48 5 75 4 39 103 87 154 158 193 222 147 56 71 80 71 82 25 -14 26 38 64 80 121 166 334 194 146 336 262 214 117 88 131 120 131
202 71 148 116 85 55 45 70 -10 -19 33 -8 38 47 -5 134 168 170 185 201 158 101 76 89 72 87 -30 -30 -12 34 56 75 98 96 24 133 130 166 141 161 167 158 81 50
219 159 90 183 100 82 42 85 3 89 118 31 29 -14 47 15 28 75 100 125 107 199 191 135 116 52 27 -16 -23 -21 -16 -23 -10 15 27 106 14 -1 -23 -35 14 -9 1 -133
137 47 95 130 75 138 25 52 23 57 83 26 6 -99 -22 32 57 71 42 115 161 131 132 135 130 103 55 21 9 4 12 19 0 -18 -45 -4 -18 -48 -101 -107 -47 -101 -99 -162
180 99 99 110 29 139 57 27 71 25 -9 19 -3 -48 -111 28 12 68 117 93 138 187 162 146 110 77 59 51 19 -3 -3 -14 -30 -33 -40 -41 -56 -123 -150 -146 -210 -257 -193 -105
95 74 94 111 46 134 33 86 129 147 131 -32 -8 1 0 45 84 76 124 118 95 199 174 101 61 57 58 42 27 9 9 -27 -51 -59 -52 -51 -73 -136 -188 -193 -201 -239 -226 -173
139 46 115 103 108 115 145 168 164 142 106 -42 -14 32 6 55 3 22 154 163 123 139 172 155 151 128 91 128 95 75 62 46 4 -17 -36 -55 -59 -60 -72 -70 -68 -83 -108 -99
171 72 90 107 93 186 205 211 240 126 118 -15 50 -57 -70 -19 25 18 82 145 135 134 139 158 179 163 133 147 144 133 98 61 79 51 32 12 -25 -39 -48 -40 -18 -10 22 50
77 103 87 110 183 127 153 228 148 184 156 99 49 54 46 -10 4 -24 9 99 145 202 180 158 162 188 177 174 207 215 161 89 95 86 65 58 28 5 -26 -47 -30 23 70 110
157 104 90 95 116 110 138 138 222 269 128 118 117 67 54 46 45 98 56 56 106 171 176 133 168 198 193 207 217 232 211 172 117 89 67 67 67 47 33 26 50 96 136 170
143 74 99 78 140 164 217 155 188 176 201 136 111 69 -4 28 11 48 53 20 32 80 140 169 197 235 277 240 248 229 215 221 142 120 113 93 107 114 111 105 127 220 297 371
240 126 138 -3 78 135 123 175 215 223 259 180 173 35 55 85 24 51 40 20 48 65 114 134 173 211 259 317 318 326 309 267 233 209 204 226 109 95 97 121 252 290 302 364
252 227 154 115 32 3 147 210 122 173 211 207 193 138 49 69 38 42 54 7 37 65 53 70 74 140 184 248 292 326 335 349 356 207 148 188 178 148 206 255 288 335 355 465
-31 105 160 156 125 92 125 185 187 148 171 200 154 175 93 56 54 65 73 47 41 77 111 115 85 103 111 161 229 247 266 319 333 299 275 322 373 352 291 332 386 417 433 327
-16 44 152 151 92 93 141 204 249 252 155 164 126 159 140 77 54 74 50 88 83 79 150 102 127 89 118 143 176 192 182 225 243 258 320 339 378 376 390 376 400 428 435 408
18 44 189 148 146 114 116 115 115 227 252 144 117 119 139 116 91 102 60 21 79 67 53 197 115 130 133 165 197 235 300 300 343 378 408 416 436 404 355 330 351 367 370 365
-78 64 203 109 151 271 240 65 101 121 186 284 185 119 123 89 87 92 66 69 91 87 85 148 133 146 164 244 249 246 298 333 338 357 342 348 335 319 283 295 308 301 302 317
-89 -48 147 214 187 230 90 8 62 80 45 168 176 92 106 78 65 82 78 75 74 119 108 125 177 239 259 300 323 331 304 285 285 289 277 284 252 257 259 277 280 318 327 336
114 5 -7 161 238 209 102 46 70 93 107 118 152 129 91 62 93 93 55 63 71 121 151 205 212 217 203 268 299 305 298 278 275 269 247 231 239 275 292 308 316 327 354 346
13 -25 -63 -15 135 88 51 6 105 166 70 105 130 137 69 131 156 86 75 97 101 151 234 247 238 220 204 225 270 302 281 271 253 228 229 227 230 244 277 275 283 284 307 349
80 52 11 -89 67 125 112 123 87 139 115 81 108 134 58 116 92 65 91 114 159 240 257 261 229 228 233 253 279 301 263 250 241 245 237 235 235 240 249 275 300 334 361 397
42 34 8 -77 99 81 65 83 85 68 53 42 74 71 48 64 68 80 68 165 243 283 271 261 266 246 235 242 260 241 234 223 241 257 267 259 259 265 292 337 358 375 367 381
41 5 -64 -9 -43 425 165 54 24 81 98 184 33 101 54 64 128 141 160 241 300 305 284 223 233 253 228 202 196 219 202 228 257 294 325 335 352 375 387 382 363 359 340 369
73 67 -8 54 3 160 113 2 23 78 65 227 128 182 190 135 156 167 218 282 296 268 247 238 274 281 272 241 242 227 226 239 261 278 307 340 393 427 437 427 411 403 402 406
-3 29 31 52 -18 -12 20 50 23 -6 -6 75 62 41 105 87 126 179 190 195 237 278 299 316 361 373 338 323 335 287 225 223 211 191 200 267 313 358 431 513 476 474 525 434
61 16 39 75 65 -16 34 68 10 -31 5 41 90 70 100 68 101 276 357 344 320 337 342 394 385 405 381 458 460 370 303 291 308 368 380 397 437 459 448 429 441 506 453 478

GFSCGP_con_3kmhel_087.txt.gz
Helicity
249 288 257 172 222 175 104 91 79 57 77 115 70 52 2 -12 24 46 105 127 123 96 92 127 110 143 16 38 74 96 123 126 116 102 172 144 172 181 233 288 266 101 67 117
236 211 116 128 131 98 104 91 58 1 68 66 77 4 -18 7 23 30 71 95 109 107 102 132 101 108 45 22 54 80 113 124 119 117 140 113 204 180 234 215 131 162 195 156
173 110 111 119 140 108 81 78 63 37 69 48 47 49 64 37 -1 34 39 47 82 100 94 128 109 78 112 70 99 88 90 124 146 170 170 218 152 177 215 217 206 104 127 215
67 90 65 75 94 133 86 69 64 50 78 76 122 -1 53 -16 -13 23 19 50 57 92 56 93 100 82 77 95 92 117 77 71 114 163 175 178 52 162 144 157 197 169 54 -70
104 72 60 98 67 79 54 52 61 68 86 77 90 61 21 31 38 -18 1 45 41 68 79 75 104 103 83 94 106 88 95 90 31 57 79 110 28 2 97 128 66 50 54 18
104 91 56 73 109 75 40 42 111 156 141 76 91 66 2 37 20 68 99 27 40 40 57 39 77 80 90 72 71 73 55 56 65 87 86 48 36 35 62 36 44 19 11 -29
127 96 99 92 80 102 89 126 166 166 173 117 101 87 75 29 21 121 106 54 50 55 50 51 81 82 72 89 82 54 36 31 33 33 28 11 19 19 22 42 72 24 -47 -71
52 72 103 118 91 104 72 124 184 110 108 117 188 115 49 -5 29 25 42 49 38 40 49 38 77 85 77 75 65 65 55 23 16 21 4 -27 -18 -32 -29 10 40 41 15 -35
102 75 125 74 95 141 126 147 82 152 175 144 104 90 32 12 11 53 28 46 52 35 67 68 48 83 72 87 88 81 58 32 28 17 -8 -13 -22 -28 -36 -41 -56 -53 -60 -48
145 58 74 147 129 108 129 70 153 173 154 136 156 119 91 33 -7 51 60 44 25 50 41 66 53 60 73 73 94 89 74 78 58 43 34 17 28 10 -6 -18 -11 -13 -67 -112
155 64 110 126 121 129 145 119 171 173 188 143 117 77 61 -4 15 36 94 49 11 19 39 66 46 27 50 83 93 87 81 70 73 53 51 40 37 41 42 37 16 12 4 -4
139 72 30 106 86 79 135 187 153 138 142 134 142 82 80 7 -21 3 85 65 34 24 41 56 39 37 64 105 112 106 98 87 92 92 72 51 49 55 56 60 64 60 44 61
142 97 36 62 98 165 151 197 173 155 141 70 72 136 59 55 64 14 45 70 45 44 39 53 44 51 77 87 94 152 176 191 160 135 134 94 73 71 82 49 57 80 72 86
80 101 79 68 133 138 210 254 222 167 183 131 91 77 181 66 50 40 50 67 49 44 39 45 45 38 55 77 78 111 144 178 195 198 192 170 137 144 143 101 118 130 102 76
101 80 104 96 105 123 94 114 200 167 105 139 119 66 52 67 78 36 41 67 66 62 50 52 37 46 66 74 73 74 65 123 157 161 165 157 132 108 91 103 116 113 109 119
185 154 130 87 63 67 94 119 101 86 73 102 94 83 102 54 75 48 29 36 41 61 69 63 40 66 70 109 111 106 106 87 102 106 114 95 88 94 93 110 112 140 153 159
117 105 80 26 90 82 106 90 66 43 60 88 91 114 86 74 80 74 61 44 41 81 56 33 59 81 87 111 144 122 127 116 86 76 76 111 122 123 154 170 162 149 162 205
105 106 89 109 35 85 61 220 132 60 62 41 79 111 127 126 111 89 87 80 63 26 58 41 92 100 129 147 148 163 155 171 151 146 149 138 129 121 129 161 185 202 212 213
81 94 85 88 30 28 67 76 55 48 101 129 26 62 86 87 104 83 61 60 56 48 64 72 79 153 177 178 204 189 199 196 185 180 183 180 166 182 195 210 213 223 254 289
46 68 109 90 58 37 32 104 77 61 60 210 357 188 125 86 108 80 99 9 78 60 53 51 67 151 184 222 234 261 234 235 242 233 247 217 189 171 175 191 225 252 301 304
72 82 117 78 68 63 36 21 23 35 51 214 324 347 189 76 76 97 140 75 102 95 85 105 167 220 277 310 305 342 332 347 298 297 262 213 178 181 192 224 237 256 292 325
55 54 95 111 86 39 17 -23 29 -5 -5 147 220 211 162 170 90 152 142 93 119 10 65 134 277 273 296 350 390 410 396 303 271 268 242 241 221 210 226 263 266 283 309 339
49 133 88 74 78 33 46 -6 -108 -59 10 46 208 262 107 171 120 66 66 73 72 25 113 152 227 352 348 340 299 284 214 198 244 275 272 289 289 287 307 320 327 342 333 334
72 66 49 66 81 5 -19 -42 -29 -22 2 126 66 55 56 81 98 153 173 180 221 105 170 191 301 380 396 325 267 191 185 197 231 225 217 240 302 360 384 391 383 378 364 339
54 57 41 42 21 24 40 -39 7 45 45 28 -7 -18 65 151 216 171 264 167 152 146 246 282 366 449 560 530 517 336 225 239 210 217 215 262 292 359 398 416 379 382 373 270
50 50 86 64 14 47 51 49 59 17 15 -21 -13 82 104 39 55 194 158 234 238 267 291 338 322 261 248 242 233 191 203 176 163 177 156 201 243 255 261 277 328 351 299 303

GFSCGP_con_3kmhel_090.txt.gz
Helicity
117 149 163 121 84 48 115 70 45 34 122 89 49 41 16 -16 39 29 20 40 67 84 131 126 108 130 76 3 28 37 33 33 91 96 193 193 174 264 320 316 205 123 165 190
134 119 105 61 61 56 64 58 27 33 84 78 30 32 16 -4 3 43 32 35 59 91 116 118 89 100 94 26 27 18 44 49 67 117 141 165 178 212 304 409 242 149 218 197
55 116 30 85 70 66 59 45 27 42 64 40 26 11 27 27 57 76 46 20 59 71 95 108 76 90 94 71 40 51 57 60 38 49 157 235 274 251 239 201 308 368 341 170
69 59 70 28 51 44 29 32 36 50 75 90 104 20 14 52 6 -3 17 44 39 59 77 100 73 90 77 101 100 109 73 48 63 87 88 123 146 131 133 206 311 319 227 3
104 64 46 63 35 40 48 64 49 56 71 75 49 44 21 24 10 2 53 47 30 56 58 93 67 66 72 94 111 118 117 54 70 84 89 117 98 61 138 141 148 124 124 116
158 160 106 38 54 61 87 79 77 70 78 65 41 55 24 11 21 35 63 20 22 53 74 62 74 61 79 71 88 115 104 64 36 61 75 100 85 129 102 157 91 22 79 33
77 93 126 135 97 53 57 105 94 67 116 76 69 76 24 26 6 -0 53 30 24 66 127 81 94 68 71 85 75 70 77 67 42 50 85 86 66 61 75 89 64 71 5 -36
79 76 48 70 47 77 20 29 101 81 59 48 70 55 44 23 22 31 39 37 39 60 101 91 98 65 62 77 70 63 52 45 61 45 6 -19 1 -11 -3 39 37 69 42 27
83 106 118 57 49 58 64 64 26 87 92 67 84 24 33 19 -1 6 33 25 36 24 59 80 96 81 72 74 80 77 66 38 44 45 27 4 -4 -5 -14 -6 -10 9 50 42
117 93 93 90 83 65 98 73 93 119 65 42 47 43 54 28 5 8 15 30 36 33 20 47 73 94 84 85 84 67 52 54 45 38 31 18 32 29 2 1 25 32 35 46
141 104 110 92 57 89 109 127 158 148 89 74 56 60 52 -25 -1 32 43 27 38 56 39 50 80 74 76 88 93 82 62 50 37 37 33 24 25 40 34 24 22 30 40 47
125 72 85 97 108 128 160 113 68 93 101 62 75 81 52 21 28 25 38 32 43 26 33 30 46 89 84 94 100 106 83 67 54 45 43 41 35 31 23 12 14 16 21 29
161 48 33 57 90 111 129 168 167 190 175 76 70 145 70 164 103 59 40 28 27 35 48 51 56 68 43 48 76 94 102 90 74 70 65 45 39 47 49 38 27 24 28 31
137 146 110 107 220 208 208 173 176 133 111 87 85 76 59 84 86 57 62 37 35 21 35 67 58 51 22 22 42 47 75 86 98 91 73 74 66 67 63 51 36 47 44 66
90 76 91 109 97 105 81 81 124 135 115 64 65 82 80 41 36 63 62 64 89 50 49 63 51 45 28 32 32 26 44 79 86 83 73 68 72 64 64 53 57 55 66 49
160 104 83 33 21 40 54 56 60 53 64 85 26 -14 25 42 17 8 29 26 21 50 46 50 39 26 39 51 56 69 54 58 74 65 45 21 31 32 34 26 31 52 52 56
136 94 62 27 45 38 27 2 31 52 65 77 63 67 53 32 32 18 17 33 44 22 11 34 52 31 33 47 98 74 94 95 70 46 41 47 48 42 48 45 46 51 67 81
75 58 70 84 62 19 -0 27 31 55 115 136 92 28 25 91 42 29 54 68 72 60 27 30 53 37 9 55 82 102 98 108 97 85 81 91 100 109 124 131 150 206 230 243
12 41 87 85 66 56 18 13 -16 22 69 112 46 76 213 184 133 123 51 71 43 45 72 36 36 53 135 82 117 156 167 199 162 174 177 167 187 241 279 288 278 275 314 326
17 14 59 84 90 120 105 124 108 82 82 142 106 114 131 247 147 129 96 4 62 24 27 37 59 88 129 136 159 181 265 241 328 305 303 299 323 348 363 330 307 299 324 348
85 93 56 47 72 43 37 37 47 100 149 120 86 103 144 199 228 199 116 96 17 86 63 56 66 109 135 146 242 264 343 429 402 415 443 453 428 414 379 346 291 303 324 379
62 59 77 58 75 18 39 64 100 86 47 95 99 33 29 246 253 232 75 71 63 120 167 155 150 188 230 243 337 500 592 522 569 577 596 567 497 451 389 337 371 319 342 412
53 44 43 44 41 54 61 15 21 40 25 50 134 47 -27 206 178 176 114 76 71 131 149 176 227 349 330 300 362 562 491 525 568 561 526 484 431 369 348 336 338 366 352 368
16 24 42 32 10 12 15 28 22 -10 -0 -9 31 7 4 42 77 3 69 67 46 89 155 230 365 473 520 537 546 449 411 443 370 371 388 393 440 461 560 459 382 384 358 349
27 16 10 9 4 22 19 37 33 31 66 18 -11 23 -11 -2 93 -35 68 141 115 81 142 270 363 433 443 450 426 402 415 296 312 323 281 332 383 411 423 442 413 417 435 328
11 18 12 -2 15 37 8 -33 58 39 46 70 -12 -5 -5 -3 66 49 207 235 194 232 250 312 384 418 357 301 291 301 259 210 200 295 292 249 210 232 229 277 368 452 382 360

GFSCGP_con_3kmhel_093.txt.gz
Helicity
91 114 139 81 85 38 28 61 65 30 25 104 25 3 14 17 -25 57 64 18 50 111 148 203 152 140 108 92 52 33 43 48 70 134 268 280 433 467 457 428 444 462 330 120
60 81 71 50 51 60 28 48 75 53 39 65 41 19 -0 6 8 -9 21 48 35 114 177 159 153 116 73 100 64 42 46 53 56 71 117 400 354 395 580 581 527 399 324 130
50 41 2 30 66 75 72 57 70 29 37 57 32 28 -8 -8 21 2 35 9 16 94 155 146 119 115 71 68 117 67 70 54 71 73 90 145 226 311 358 463 435 395 330 282
46 27 35 42 21 50 46 59 52 84 85 112 1 44 38 27 36 49 47 35 32 69 135 135 108 116 87 58 109 131 95 57 50 28 57 103 143 166 173 223 236 169 207 190
48 53 29 56 19 38 34 83 92 54 100 91 62 69 20 -37 13 51 15 25 67 69 106 117 96 110 91 64 76 141 126 69 27 40 61 83 122 183 232 238 223 164 263 293
74 38 70 44 38 56 75 63 62 92 87 117 83 54 32 -12 34 26 63 19 70 84 110 107 95 109 94 110 53 94 122 109 45 38 52 66 120 157 159 261 282 265 304 248
51 96 60 108 78 69 83 103 99 63 108 122 23 78 39 46 40 22 44 25 60 68 109 105 113 103 105 110 74 53 86 91 81 55 51 72 127 108 137 214 253 311 202 150
42 49 56 81 74 77 59 47 111 53 78 49 14 112 52 -8 45 36 54 34 61 85 109 126 113 98 102 110 89 71 46 74 83 69 92 96 89 138 96 112 165 195 147 76
95 63 125 45 45 96 67 65 14 101 31 110 66 32 7 61 29 26 4 24 44 59 81 92 109 103 93 90 78 79 75 57 58 76 61 34 52 59 46 45 75 58 65 20
79 102 72 51 59 53 46 25 66 84 90 96 87 56 23 43 11 18 14 17 16 45 45 57 72 94 82 83 64 64 59 64 58 43 60 36 22 3 22 15 70 44 49 23
124 91 33 51 17 17 57 130 114 71 48 74 65 38 55 119 80 56 15 58 39 36 48 44 46 94 81 93 98 78 58 58 76 57 46 52 39 -3 10 -0 39 46 42 49
116 134 116 78 109 144 184 58 39 90 78 30 36 79 20 45 125 101 136 18 42 49 55 38 65 118 127 138 121 105 77 59 63 84 69 59 55 61 34 30 41 45 42 63
127 72 86 74 57 69 87 60 99 80 106 116 78 54 41 65 55 71 106 26 16 25 28 29 44 97 147 164 141 136 126 81 74 77 95 87 81 77 71 50 34 52 46 48
105 96 92 137 194 247 147 110 87 137 89 64 61 56 44 26 80 49 39 68 44 22 30 33 42 50 98 133 117 112 131 123 106 86 77 102 90 82 82 84 77 71 68 71
71 58 51 37 63 106 89 79 89 76 75 81 73 85 101 78 53 62 49 83 103 25 26 41 33 50 58 79 75 74 96 116 108 115 105 112 81 68 66 86 96 87 93 76
144 66 67 28 31 52 42 47 56 67 67 60 55 54 12 1 21 28 31 79 88 94 38 32 56 48 45 47 56 67 75 113 123 104 121 117 129 103 93 98 103 113 94 88
96 96 68 29 33 51 51 19 25 29 45 54 39 24 25 58 65 26 18 34 31 63 28 32 58 32 37 26 57 69 75 105 121 97 98 113 109 83 104 101 93 97 90 132
71 56 93 79 86 49 16 32 50 75 102 59 80 51 144 104 54 27 18 12 2 48 73 90 81 85 54 53 59 83 114 120 126 123 99 96 98 86 78 94 156 360 411 394
-2 71 92 81 44 41 36 33 98 74 29 136 190 172 120 95 112 66 41 34 76 107 103 72 95 93 140 67 41 80 72 116 152 122 148 134 117 136 319 463 462 453 479 470
-5 29 66 65 63 51 55 101 74 64 40 87 138 109 95 121 123 119 229 226 181 97 82 129 124 113 27 68 66 123 113 162 132 186 347 485 480 478 458 475 503 495 510 514
23 69 26 22 67 66 91 101 80 47 124 136 148 193 180 94 74 47 72 205 155 42 121 55 -7 15 3 63 124 183 410 691 646 739 682 595 558 549 515 556 564 551 557 550
72 94 85 46 79 51 2 38 62 121 125 98 105 113 115 128 58 43 61 109 35 72 70 48 22 38 62 179 394 477 632 648 670 742 779 699 654 655 601 581 569 540 498 495
40 24 35 34 24 -12 45 19 14 25 52 66 47 78 77 58 80 38 69 110 68 59 83 116 186 250 254 267 363 464 522 626 741 893 858 780 747 738 741 593 512 494 419 356
25 14 42 27 37 10 16 54 23 13 36 67 37 52 16 83 64 33 59 159 84 53 104 120 135 233 309 330 421 552 545 629 722 786 715 687 733 729 689 631 536 453 397 323
45 31 55 29 6 10 5 -7 12 42 70 48 70 19 -21 70 5 68 83 31 63 93 123 130 157 272 322 353 479 539 580 692 784 758 621 628 667 645 556 547 463 438 436 351
60 58 48 20 28 40 31 53 64 59 57 93 24 26 -7 65 11 89 86 29 51 158 253 250 253 300 316 365 388 404 391 414 445 502 499 472 527 496 422 427 614 558 449 432